GFSSGP_925_rhum_057.txt.gz
RH
24 32 17 10 13 11 10 9 6 11 12 12 21 18 21 17 49 74 81 65 71 77 76 92 92 96 94 95 91 86 69 58 52 41 42 53 63 70 79 82 88 86 89 83 83 83 75 48 43
25 14 12 11 13 10 9 6 11 9 15 25 26 28 30 31 45 59 78 71 68 74 77 83 94 100 96 98 92 78 68 57 42 39 55 62 61 65 75 82 86 86 88 83 83 85 76 46 44
21 14 13 12 11 10 9 12 9 13 23 22 23 27 32 39 48 54 56 77 77 78 81 87 93 95 99 99 84 77 67 45 46 63 67 61 78 70 72 83 86 88 88 85 87 77 43 40 39
13 10 10 11 10 8 8 8 10 17 21 22 21 31 43 61 58 68 68 69 79 80 80 89 98 100 98 86 82 77 61 50 54 69 63 72 88 88 86 82 90 90 90 86 73 42 40 40 39
11 9 11 12 9 8 7 7 12 19 23 23 23 29 48 65 79 94 78 71 82 83 91 100 99 98 92 90 91 79 60 59 72 74 64 72 83 84 82 86 92 83 80 55 43 41 40 38 31
11 8 11 10 9 7 7 9 14 24 24 26 25 26 55 64 93 99 95 98 94 95 100 100 95 92 84 86 88 86 74 75 80 67 69 72 73 86 86 85 80 63 46 45 44 40 36 32 30
12 11 11 10 9 9 10 18 20 26 26 23 24 30 60 77 100 100 100 100 97 99 92 99 93 84 87 85 83 85 88 88 85 67 65 62 62 71 74 72 63 45 46 45 41 36 34 32 31
10 10 11 9 10 13 16 18 24 26 27 28 29 34 49 86 98 100 99 100 98 99 98 100 88 90 82 83 78 74 82 89 82 62 56 51 50 52 52 49 45 45 45 40 36 36 36 34 29
9 11 11 11 10 12 14 16 19 27 29 29 43 60 78 88 99 99 99 100 100 100 91 96 94 87 83 68 72 72 82 83 72 60 53 53 47 44 51 55 42 42 40 40 41 41 40 34 28
11 11 11 9 9 10 10 12 17 28 30 35 56 89 96 90 80 86 97 99 100 100 100 100 98 99 95 92 77 72 69 72 75 61 58 57 55 52 67 52 44 43 43 44 44 45 43 43 35
10 11 9 9 9 9 10 11 16 25 28 24 39 86 86 86 83 82 97 100 100 100 98 99 91 72 66 62 57 65 68 74 65 61 57 56 58 62 68 69 61 49 46 49 48 50 47 47 40
12 10 10 10 10 14 15 16 22 22 33 34 57 73 78 80 81 80 92 100 100 100 97 90 89 90 89 90 89 87 85 76 66 66 66 63 65 67 68 61 61 57 52 50 52 53 56 51 47
13 10 11 13 13 17 19 24 24 28 34 48 62 62 61 65 67 71 90 99 100 100 100 98 98 99 88 70 77 63 62 56 46 66 69 63 62 64 60 56 57 54 53 57 55 57 52 51 46
12 12 15 16 14 17 23 22 24 33 41 55 52 57 59 54 60 79 89 96 99 99 100 97 93 94 90 83 82 78 61 52 58 64 68 62 61 60 58 61 57 55 56 55 55 52 51 45 45
13 16 18 22 17 19 21 40 44 36 44 48 48 53 56 44 50 67 78 82 87 92 91 83 83 92 93 91 75 62 68 64 61 60 61 64 63 69 60 62 58 58 57 57 54 55 50 47 41
14 15 21 66 42 18 20 67 76 32 35 37 40 42 56 57 48 62 66 74 80 87 96 96 97 92 85 80 67 78 60 56 46 50 60 69 66 68 64 64 65 62 61 61 57 55 51 47 42
14 19 24 31 22 20 19 36 26 28 30 33 36 39 47 60 49 53 56 56 61 63 72 76 73 75 73 67 68 67 58 59 51 52 66 85 78 74 71 66 66 67 66 62 61 57 53 49 42
14 18 16 28 36 17 22 20 18 26 28 30 33 42 46 46 48 55 44 46 46 52 58 59 68 67 70 72 69 61 61 62 50 52 64 82 83 88 83 68 68 73 70 65 62 60 57 51 42
15 15 15 28 32 21 18 16 16 23 28 30 35 40 42 47 44 53 50 46 44 50 55 59 63 61 57 58 57 56 53 53 54 55 67 92 84 82 88 82 75 83 66 63 67 66 58 51 47
16 17 15 13 15 17 16 17 20 18 27 27 31 42 43 38 44 46 49 50 48 48 51 54 54 52 52 48 48 46 47 48 57 61 65 87 92 81 86 84 76 81 65 68 71 67 61 53 51
19 19 16 16 17 16 16 17 19 14 22 25 26 29 33 42 43 44 46 47 49 50 50 48 51 52 52 48 47 46 45 43 47 53 63 94 100 84 80 84 78 75 68 70 75 68 57 53 52
22 15 16 19 18 20 21 25 25 16 19 25 26 26 28 30 38 41 44 45 48 49 52 52 51 50 51 52 48 47 46 44 45 55 62 91 91 74 72 89 89 75 71 73 74 66 61 58 49
19 19 19 18 19 19 21 19 20 14 14 16 21 24 24 26 31 36 38 41 45 46 49 53 53 51 49 51 52 50 51 46 45 53 62 91 99 97 91 92 88 79 79 75 71 66 64 57 56
16 21 21 21 22 29 20 23 27 24 13 13 13 19 22 24 24 28 34 38 40 44 49 52 52 49 47 49 54 56 53 55 46 46 86 92 96 97 97 88 82 87 88 73 69 66 66 69 57
21 23 35 44 33 33 20 21 18 22 12 12 13 13 17 21 25 25 28 35 38 42 47 50 51 49 48 50 54 59 61 62 61 57 74 77 85 88 89 91 89 90 88 86 70 72 74 67 73
24 22 35 51 46 33 25 24 17 13 12 12 12 15 17 16 21 25 25 29 35 41 47 52 51 52 49 54 58 63 67 70 72 72 69 74 78 85 90 92 87 94 96 81 79 82 77 76 62
20 28 19 30 34 39 23 17 14 12 14 14 14 16 17 18 17 21 24 26 30 37 44 52 54 54 53 56 63 71 79 76 82 83 79 82 85 92 96 97 99 99 91 89 90 84 77 73 78
20 21 30 29 51 48 23 20 18 15 14 13 13 14 19 19 18 19 20 25 28 33 40 50 58 56 57 63 68 73 77 86 88 89 88 90 92 99 100 99 96 88 93 94 94 82 90 78 69
25 28 25 23 27 47 38 21 15 14 13 13 13 14 15 20 22 22 22 22 26 30 37 49 55 55 57 58 65 74 85 91 92 96 96 94 100 99 100 98 95 98 99 98 94 88 80 82 80
20 23 24 35 36 33 33 33 14 13 13 14 14 14 17 20 22 25 26 27 29 35 38 44 52 54 52 55 63 77 84 90 97 99 100 100 100 100 100 99 100 100 96 89 93 87 77 79 80

GFSSGP_925_rhum_060.txt.gz
RH
17 18 30 20 15 14 15 10 6 7 18 33 41 45 52 38 24 44 79 50 82 87 91 90 85 86 86 91 95 77 65 57 53 43 45 54 60 84 88 88 84 85 84 83 83 83 68 36 39
34 26 20 12 16 17 11 8 11 11 33 26 29 45 38 33 37 55 60 51 30 53 88 98 93 91 91 91 86 74 64 56 43 42 49 63 74 87 87 85 83 84 86 86 84 76 38 35 42
26 20 14 16 16 14 12 8 9 9 18 19 27 21 35 51 53 51 57 63 71 76 83 94 92 98 94 91 84 74 64 49 43 48 58 64 78 86 85 87 81 85 88 88 82 42 37 36 43
17 11 11 14 12 10 8 9 8 10 12 18 18 54 55 66 81 79 67 70 78 76 79 84 98 99 96 96 94 83 61 49 50 55 72 72 75 83 87 89 79 85 87 77 44 38 38 32 33
13 10 13 13 11 8 6 7 6 8 24 46 34 74 76 66 89 92 91 76 74 86 98 81 100 99 96 97 92 73 52 58 60 72 79 83 76 83 88 89 76 72 62 43 38 38 30 26 24
14 10 12 11 9 10 8 7 9 12 48 55 56 61 62 80 99 98 99 93 89 92 100 100 100 100 99 94 90 68 67 77 77 86 87 84 82 87 90 86 66 51 43 40 37 30 28 24 19
12 12 13 10 9 10 12 12 14 25 56 58 72 80 81 89 99 100 100 97 100 97 78 65 98 100 100 99 87 86 83 85 90 95 96 89 85 88 89 74 48 43 42 37 30 29 28 22 18
9 10 12 10 10 12 18 14 25 27 70 56 58 57 86 84 99 100 99 99 100 100 88 86 61 73 87 87 83 76 86 90 88 86 93 94 93 88 78 55 44 44 39 33 32 32 29 22 27
8 13 13 12 12 11 11 13 43 27 44 55 62 72 80 96 98 98 100 100 100 100 100 99 96 98 92 83 80 79 69 76 80 73 77 81 82 75 66 49 47 43 36 37 39 36 31 30 27
10 12 11 9 8 9 9 11 12 23 36 66 78 81 78 82 80 89 98 99 100 100 100 99 99 94 98 93 74 64 73 69 72 64 60 57 68 61 62 51 46 39 40 43 44 43 42 42 35
9 12 9 8 8 8 9 10 9 12 66 64 62 82 79 76 78 92 99 100 100 100 99 100 100 89 87 87 76 72 70 72 65 64 59 54 64 46 46 44 42 43 44 46 46 48 50 46 40
11 9 9 8 8 10 12 13 18 52 70 64 58 72 72 69 74 84 99 100 100 100 100 99 99 99 99 82 62 61 69 68 65 62 66 66 63 52 47 48 47 47 50 48 52 54 53 48 44
11 11 8 9 11 10 11 17 44 64 67 57 63 64 69 66 75 85 96 100 100 98 100 100 94 90 81 75 67 68 82 70 70 64 65 61 60 64 52 57 55 52 55 52 54 56 54 50 43
11 11 10 21 23 22 14 37 61 68 63 52 48 54 60 60 73 85 94 99 100 100 99 100 100 97 86 87 91 86 76 60 56 66 64 58 58 66 54 62 58 55 55 57 56 56 53 49 46
12 14 14 30 24 28 22 38 59 71 73 51 47 54 45 59 69 78 89 95 98 99 100 99 93 89 87 89 87 77 66 62 41 63 66 66 64 60 64 62 60 57 57 56 56 54 51 48 43
14 13 18 35 24 20 30 39 48 46 49 43 42 48 49 44 61 70 80 84 90 95 86 89 88 85 83 84 78 76 63 44 50 64 62 61 65 64 62 62 60 59 58 58 57 56 53 49 42
14 17 16 32 29 30 33 33 54 47 45 42 38 39 52 50 57 62 71 78 85 88 93 94 97 96 82 77 75 54 53 61 62 59 62 66 62 68 62 65 64 62 61 62 60 58 54 51 45
17 14 15 22 30 28 22 23 42 69 64 34 33 30 51 55 46 57 69 70 74 80 86 88 90 84 82 80 73 73 69 66 57 51 56 69 72 68 69 70 67 67 66 66 64 57 56 54 50
15 16 16 23 19 21 24 17 22 26 57 27 36 35 42 49 44 44 58 59 58 73 78 78 79 83 81 74 79 77 70 65 58 56 51 62 70 79 82 73 72 71 71 69 66 60 60 54 48
17 14 14 14 18 22 17 15 15 37 50 25 28 37 40 41 47 47 44 48 54 66 67 68 72 73 74 72 69 70 61 61 58 52 54 64 77 80 79 76 75 80 81 71 66 64 64 56 50
17 18 16 17 23 17 17 17 15 16 20 20 26 35 32 41 48 52 47 48 53 58 59 63 67 68 70 65 58 55 51 52 52 58 57 68 72 78 81 82 81 83 86 72 67 68 66 62 55
22 15 15 15 21 21 18 28 23 19 19 21 24 32 38 40 44 49 48 50 51 56 59 60 62 62 62 52 48 49 51 50 52 57 61 68 72 79 78 84 75 74 81 80 83 71 70 65 58
20 17 19 18 18 20 18 30 27 19 21 20 24 24 36 39 40 46 48 49 51 51 55 54 54 54 53 52 53 49 48 46 43 45 52 64 81 84 82 83 81 76 84 88 88 83 81 70 64
16 18 20 20 21 33 21 25 21 23 24 18 21 22 26 32 38 40 44 46 48 49 54 54 53 53 51 52 52 54 53 50 48 50 54 65 76 81 86 96 98 89 87 91 85 95 86 89 90
20 22 36 57 47 42 18 19 25 32 28 18 18 18 22 28 31 37 41 42 44 48 52 56 56 54 53 52 54 57 51 58 52 50 57 69 87 89 90 88 94 95 89 87 93 94 97 96 81
22 23 38 49 79 52 39 29 18 20 19 14 11 12 18 22 29 30 33 37 39 45 50 52 54 55 53 52 51 53 59 55 60 69 65 65 88 92 87 88 92 87 86 88 93 95 97 93 94
20 30 21 31 54 65 41 32 16 14 13 12 13 14 17 18 21 27 30 34 37 40 47 53 52 53 51 50 51 53 55 61 68 71 73 72 74 86 91 93 89 90 91 95 100 97 94 96 84
18 14 33 30 58 55 28 20 32 17 15 12 13 17 20 18 18 20 25 29 35 39 44 50 53 51 51 51 54 55 69 74 66 76 82 86 85 89 92 92 93 96 97 100 100 100 97 88 85
19 23 28 27 31 47 53 39 43 21 14 13 14 15 17 20 22 20 22 25 29 36 41 51 55 54 53 54 62 68 71 76 82 91 87 91 92 93 94 98 100 100 99 99 98 97 88 85 82
18 23 24 40 37 40 48 38 17 18 16 16 15 14 18 18 21 24 24 23 27 32 38 48 53 55 54 55 62 72 78 84 90 93 98 99 97 95 97 100 100 100 100 100 98 90 87 84 80

GFSSGP_925_rhum_063.txt.gz
RH
14 15 19 32 37 29 29 21 15 28 37 39 39 34 38 44 54 80 76 79 71 56 63 77 94 84 89 85 72 62 55 50 46 40 46 63 83 86 85 81 85 85 84 80 76 67 60 58 60
20 34 30 36 28 33 25 16 15 28 33 38 42 40 36 73 71 81 82 58 53 53 32 27 57 90 92 96 76 63 58 56 48 42 60 84 87 85 80 77 82 84 86 80 69 46 42 52 52
20 32 37 28 31 30 24 15 12 13 29 30 30 54 72 84 67 72 62 74 77 59 61 46 83 88 84 78 70 61 57 49 44 49 85 86 88 80 74 77 80 83 83 71 39 34 41 48 47
27 22 22 23 25 21 18 13 10 12 33 48 46 74 62 62 90 99 79 73 71 50 83 82 86 88 88 95 87 71 56 42 45 55 85 84 84 79 73 77 77 73 71 43 34 31 41 44 42
28 27 26 26 23 16 12 10 32 46 49 62 52 78 74 90 91 93 68 74 82 94 92 77 84 93 96 94 88 67 56 55 58 68 86 85 87 81 72 67 60 43 37 35 31 23 25 41 39
32 22 28 26 18 13 12 18 36 48 47 53 61 68 74 91 96 98 90 77 80 97 98 98 99 100 96 93 90 73 70 72 73 76 85 87 89 83 69 57 42 38 37 32 26 22 18 34 37
22 24 26 20 16 14 17 16 52 55 51 62 62 73 78 72 93 99 95 100 95 88 85 67 79 95 99 100 98 90 82 76 80 75 82 88 90 83 64 48 41 38 34 28 25 20 14 31 37
18 18 19 16 15 16 17 16 30 45 57 55 55 74 74 86 95 100 98 100 99 84 86 96 76 98 87 84 88 90 73 81 82 85 92 89 94 85 60 46 41 37 30 29 27 21 27 34 32
15 19 21 18 15 15 12 14 33 54 73 70 67 80 83 90 99 99 99 100 100 100 99 99 99 93 90 90 84 78 80 86 80 82 84 96 96 79 52 45 40 33 34 33 28 29 27 27 28
16 22 18 13 11 11 12 14 19 66 69 76 78 77 94 98 97 97 100 100 100 100 100 99 100 96 93 89 84 71 70 72 79 84 76 84 85 61 47 43 38 37 42 40 38 40 42 38 34
16 17 13 11 11 11 13 39 51 54 63 61 67 91 85 92 94 95 100 100 100 100 100 100 100 99 92 98 85 79 63 66 80 77 73 74 61 50 46 42 39 42 45 45 47 52 45 41 35
16 13 12 11 18 18 13 62 75 74 73 69 67 81 84 84 90 97 100 100 99 99 100 100 100 97 94 87 81 67 61 68 64 62 59 54 50 48 44 42 42 44 46 50 55 53 49 41 35
17 14 12 16 20 22 26 50 64 74 59 62 63 71 76 81 87 93 99 100 100 100 100 100 97 92 81 75 69 76 72 65 64 62 66 57 43 41 44 44 44 46 47 53 58 54 50 43 40
15 16 15 19 21 24 34 48 43 59 65 60 68 75 81 85 85 94 100 100 100 100 100 99 100 100 90 88 77 60 65 69 68 63 62 66 58 46 44 46 44 51 54 56 56 54 52 47 44
19 21 18 24 22 20 31 42 46 54 54 63 73 77 81 86 85 87 98 100 100 100 99 100 99 89 77 69 76 84 79 66 62 56 64 67 66 53 50 54 56 55 61 57 57 55 54 49 44
24 21 25 21 26 25 31 46 45 61 60 64 68 72 77 80 83 87 94 98 100 100 100 97 96 82 67 70 73 80 69 55 60 48 61 63 60 57 61 68 68 61 58 58 57 58 53 50 45
27 30 24 28 30 29 35 42 55 56 61 62 64 72 70 78 86 86 91 98 100 100 98 98 85 75 66 62 61 57 58 47 46 60 65 54 60 66 60 64 61 63 58 58 58 57 54 52 49
31 27 20 35 33 34 41 43 51 54 57 62 67 67 67 76 80 83 88 91 96 95 100 96 92 87 87 87 85 76 54 50 52 58 62 55 53 65 68 63 67 64 62 61 62 59 57 57 52
24 22 22 26 27 35 39 37 59 64 73 72 72 62 69 72 70 76 84 86 93 93 93 90 93 92 89 80 77 73 70 60 52 55 55 59 63 67 68 65 68 68 66 64 64 64 60 57 55
22 23 22 22 25 25 28 30 42 62 64 58 55 64 66 65 71 75 78 81 87 87 92 92 94 89 82 81 73 69 66 62 51 52 59 57 67 69 68 65 69 71 72 69 69 67 62 61 58
23 23 24 23 24 22 27 30 45 46 42 45 42 47 52 58 64 74 70 74 82 86 86 87 84 84 79 68 68 72 70 72 70 64 58 58 56 63 71 74 68 74 78 76 73 72 63 62 62
26 20 21 22 26 36 22 41 25 35 39 39 42 47 51 60 54 62 62 68 78 79 76 76 79 80 75 72 75 76 75 69 65 54 53 52 60 64 73 73 71 71 76 84 81 74 67 69 67
23 23 22 25 31 30 28 42 36 27 28 32 47 45 50 56 56 52 56 59 65 69 72 72 73 74 70 77 75 72 66 58 56 54 55 57 60 65 68 74 80 78 85 86 81 75 76 80 88
19 23 25 25 32 46 31 38 39 32 26 24 33 46 45 52 57 53 49 55 60 61 64 66 67 66 67 69 67 68 59 57 57 55 56 54 59 64 72 74 79 83 87 90 89 89 93 82 97
23 28 52 65 66 62 35 44 29 30 26 26 32 51 58 50 52 57 54 52 54 60 62 64 66 66 64 66 64 62 59 55 52 50 55 64 75 80 76 86 86 86 85 93 99 97 91 98 99
28 32 62 57 80 67 40 53 29 28 23 24 20 29 51 47 46 52 53 53 53 55 61 63 62 62 62 61 59 57 55 59 54 52 51 52 57 62 68 82 89 92 96 97 97 95 98 98 96
29 35 29 44 55 72 57 35 32 26 26 19 16 16 37 42 44 47 51 51 52 53 56 62 59 58 57 58 60 61 53 56 56 56 58 58 66 69 73 92 94 93 95 94 96 99 100 98 98
22 22 41 49 70 77 51 45 48 37 21 15 17 24 25 30 37 43 46 49 49 51 53 57 59 60 58 58 60 59 62 59 61 63 76 74 87 89 90 99 95 100 97 96 97 100 98 100 97
30 28 29 40 49 66 64 54 44 38 29 17 23 21 26 24 26 34 36 44 44 46 52 58 59 58 59 59 58 57 56 53 78 66 71 75 75 100 95 93 98 99 98 99 100 100 100 97 89
22 26 30 60 52 56 66 55 29 31 26 20 18 21 25 27 28 28 38 37 40 42 46 54 59 58 59 60 61 66 77 67 78 81 92 99 99 99 96 98 100 100 100 100 100 100 99 91 89

GFSSGP_925_rhum_066.txt.gz
RH
19 20 24 31 31 35 35 24 20 18 29 37 40 34 59 83 78 89 84 90 93 93 94 89 80 67 77 76 59 56 52 47 50 60 81 78 71 72 73 79 78 77 75 79 86 88 90 92 90
21 36 31 39 37 36 32 22 20 17 23 42 40 43 69 92 70 88 87 86 89 83 84 95 89 70 69 91 64 54 50 43 49 68 82 79 72 68 62 63 65 65 70 75 84 86 74 61 69
19 36 40 38 38 37 31 20 17 46 45 44 45 62 70 79 74 78 82 73 74 71 71 81 90 71 66 68 86 63 62 60 80 85 87 85 75 60 57 54 53 58 66 74 82 65 52 45 58
26 25 28 27 29 26 24 19 17 48 49 52 52 73 66 78 91 95 97 100 77 63 70 63 61 73 77 69 74 84 52 52 79 86 89 89 68 56 54 56 57 62 66 62 51 50 43 55 58
30 31 30 29 28 22 17 15 42 50 61 58 55 71 70 88 82 86 92 100 83 84 96 95 77 70 92 98 97 76 53 58 84 88 89 87 63 58 60 63 50 40 35 34 45 44 41 61 62
37 30 34 37 28 20 15 25 44 50 54 54 65 73 71 85 68 91 99 100 87 88 100 100 96 85 96 99 90 63 45 44 84 87 89 87 70 66 58 43 36 33 24 22 28 39 40 42 61
34 29 30 27 23 17 15 37 46 52 63 62 55 58 61 76 80 99 99 100 100 100 98 89 91 81 92 77 98 88 60 80 83 88 90 90 75 67 48 38 34 26 23 19 17 33 38 32 49
24 26 25 24 20 19 14 26 46 56 73 58 58 66 68 89 83 99 95 100 100 100 100 99 100 88 74 87 84 94 77 78 85 88 94 88 74 59 42 37 29 26 23 18 20 35 33 31 31
17 27 30 23 17 16 16 24 64 65 72 67 70 83 89 95 90 91 94 99 100 100 99 98 97 84 85 84 84 72 84 82 90 90 90 86 71 52 41 34 28 27 24 22 29 30 30 30 30
21 27 24 16 15 14 56 40 62 58 55 62 72 90 95 96 88 96 98 99 100 99 99 100 97 95 90 95 96 80 74 71 84 85 77 82 57 44 38 33 34 30 31 33 33 31 28 29 30
20 24 18 16 14 16 55 57 52 55 63 62 61 96 98 96 97 95 99 99 99 99 100 98 100 99 97 96 94 99 81 68 66 67 76 79 49 45 39 37 42 39 39 42 44 41 36 32 28
19 18 17 14 22 26 45 67 57 69 54 67 61 88 91 92 91 94 100 100 100 100 100 100 97 100 100 100 91 75 90 91 85 71 73 63 46 45 39 40 44 44 46 48 50 46 42 35 31
19 18 16 15 19 34 54 62 57 71 70 68 78 83 87 84 88 95 98 100 100 100 100 100 100 99 96 94 87 86 84 82 78 72 67 48 43 43 39 43 45 46 51 52 52 50 43 37 31
20 23 22 18 21 25 38 56 47 58 63 69 79 82 89 92 95 98 100 99 100 100 98 100 100 98 90 79 68 66 68 68 66 62 56 42 40 43 43 43 45 46 52 56 55 53 48 42 37
22 25 23 20 21 24 44 53 50 55 70 73 77 82 90 90 90 92 96 100 99 100 99 100 100 95 89 90 66 75 70 65 64 59 47 41 43 42 42 44 46 50 52 56 56 54 50 48 43
25 26 28 22 24 25 27 38 54 59 66 74 74 87 89 90 88 89 95 100 99 100 99 100 97 95 83 83 86 80 78 70 68 70 68 60 52 44 46 49 52 54 60 57 57 55 54 52 46
32 36 31 27 27 27 33 41 58 63 59 65 75 87 94 91 89 89 92 99 99 100 100 100 100 93 90 80 75 80 65 58 67 66 67 62 62 59 58 65 64 61 61 59 58 57 56 51 49
37 35 28 27 28 35 40 46 61 64 62 57 61 86 92 92 92 89 94 99 100 100 99 99 98 88 80 76 65 70 60 59 53 42 39 54 58 65 67 65 66 64 63 60 58 58 56 55 53
29 32 33 27 30 36 41 48 56 64 65 65 65 77 90 90 83 88 94 97 99 100 100 97 84 81 74 79 83 71 53 46 44 53 61 66 61 64 67 61 60 62 63 60 60 60 59 58 57
30 30 30 24 24 34 31 33 39 61 62 66 67 75 88 84 86 86 93 97 98 99 100 99 92 81 77 74 72 69 55 50 45 45 57 61 65 59 64 64 65 67 68 65 64 62 63 62 60
29 30 30 26 22 26 28 32 52 54 58 59 59 62 74 80 88 85 88 94 99 98 99 96 92 81 74 66 64 66 58 50 51 51 45 52 62 62 64 66 66 62 71 69 68 67 67 65 64
35 25 25 27 31 39 26 42 39 54 53 52 52 67 68 74 77 80 83 89 95 94 95 97 95 92 85 80 79 75 72 70 60 56 54 48 57 64 62 63 68 66 70 75 75 73 72 69 69
30 26 26 26 31 32 32 38 35 39 46 50 51 54 64 67 72 80 78 81 88 87 91 94 93 91 86 83 77 72 71 70 67 66 57 48 51 61 64 64 64 68 74 73 75 79 76 75 69
23 24 28 33 38 51 37 40 39 34 30 34 45 47 58 63 67 70 70 74 82 86 87 88 88 85 83 79 72 68 74 77 78 71 69 68 58 54 58 64 68 72 77 75 75 84 88 80 76
27 32 50 59 57 59 35 47 46 30 26 30 47 48 49 61 59 70 69 70 76 78 78 79 79 78 77 76 74 74 76 74 75 71 66 65 62 67 65 74 78 80 82 88 94 94 89 86 85
32 35 60 56 71 57 47 55 41 27 28 27 42 45 48 60 58 58 62 63 67 68 70 70 70 71 71 73 72 77 78 80 73 69 66 65 62 60 56 59 68 72 82 99 98 97 99 99 99
31 41 32 50 59 71 56 44 32 30 25 24 40 45 49 54 61 58 54 60 61 61 64 68 66 65 65 67 70 73 76 76 76 72 68 65 66 68 64 69 81 92 95 94 98 100 100 100 100
25 28 43 57 63 70 58 52 50 31 23 20 24 42 43 54 49 57 57 54 56 60 61 64 65 64 59 61 65 68 69 69 71 76 75 74 72 81 78 84 90 95 95 92 100 100 100 100 97
31 34 33 44 61 73 73 57 44 38 24 27 23 34 40 51 51 48 54 54 54 54 63 66 67 65 64 64 64 62 64 68 71 77 89 94 95 76 85 95 98 99 99 100 100 100 100 100 100
23 30 36 52 56 65 72 52 31 39 34 25 25 26 34 41 45 45 47 51 54 56 56 60 69 70 67 66 64 66 69 74 82 94 92 86 80 95 89 100 100 100 100 100 100 100 100 99 98

GFSSGP_925_rhum_069.txt.gz
RH
21 20 25 30 27 39 38 29 24 22 18 41 46 44 72 82 70 68 80 89 87 97 95 83 52 47 54 60 62 69 64 64 64 77 86 87 89 82 78 80 79 86 85 87 91 89 93 93 92
34 33 33 35 38 36 28 24 20 20 28 45 50 63 78 82 74 82 79 89 90 100 93 82 65 53 48 43 47 61 90 85 91 88 89 90 92 90 83 77 83 88 88 89 89 91 96 97 92
27 36 37 40 42 35 32 22 18 42 47 48 52 66 71 86 74 77 78 81 91 99 100 98 84 62 58 58 65 62 79 87 87 86 87 90 89 82 75 74 84 89 89 88 84 71 66 72 87
25 26 28 31 31 29 26 20 19 30 44 49 57 69 64 75 86 88 84 80 92 94 99 98 91 76 92 76 67 65 76 91 84 83 85 87 85 72 61 66 78 88 89 82 65 46 65 72 74
30 32 32 31 29 23 21 19 22 50 52 53 57 57 68 89 85 85 88 91 95 86 85 81 86 98 90 97 99 84 76 90 83 84 87 88 88 69 62 69 77 84 83 65 50 57 63 62 58
37 31 38 37 30 23 19 30 47 54 57 56 60 68 66 88 72 89 97 98 92 94 90 98 88 71 88 91 82 95 82 92 91 83 86 87 87 70 62 56 56 60 51 43 54 60 60 60 53
33 36 34 29 27 23 15 42 47 53 60 54 60 58 62 75 92 98 100 99 100 100 100 95 76 61 89 83 68 99 85 70 91 78 82 84 80 64 48 38 34 37 40 40 40 58 62 59 57
32 30 27 28 26 21 17 44 50 57 53 59 60 66 63 77 98 99 100 100 100 98 98 100 97 84 68 82 72 100 92 97 95 83 85 82 72 52 38 28 23 22 29 38 32 34 52 60 59
22 30 35 27 21 17 22 38 62 65 73 72 71 84 82 89 99 100 99 100 100 100 99 98 99 94 85 68 78 88 97 97 98 90 84 77 62 43 30 24 20 16 30 32 31 30 36 52 61
25 32 26 21 17 17 32 49 59 64 58 66 74 79 94 100 100 100 100 100 100 100 100 99 94 81 84 92 78 78 78 86 77 82 79 62 48 37 28 26 22 29 31 31 32 31 32 47 62
22 27 22 19 19 17 39 57 58 59 53 54 63 79 96 100 98 99 99 99 100 100 100 100 99 100 99 99 100 94 86 86 72 70 65 54 46 35 32 28 24 28 30 30 32 32 30 33 47
20 20 19 19 16 29 52 55 60 60 45 55 57 87 94 95 98 99 97 100 99 100 99 100 99 100 100 100 92 99 100 91 76 70 62 51 43 35 34 29 34 36 36 37 32 33 31 29 38
21 18 19 19 22 29 56 57 50 63 58 67 70 93 96 95 94 98 100 100 99 100 100 100 100 100 100 100 92 93 90 86 76 74 64 42 39 36 41 38 41 43 49 42 43 41 34 31 31
18 23 25 23 21 48 50 55 58 46 68 75 86 94 94 93 96 93 99 100 99 100 100 100 100 100 99 99 91 86 83 87 84 85 63 42 40 38 44 44 46 51 51 50 49 45 36 31 30
22 25 26 23 22 27 46 53 66 46 71 74 90 88 94 94 95 96 97 100 97 100 99 99 100 100 100 91 89 99 95 90 90 70 52 43 40 40 45 46 49 53 52 54 54 51 43 42 33
24 27 31 22 22 24 29 34 37 62 72 82 89 93 95 95 92 92 97 99 100 100 100 100 100 100 97 92 92 92 97 94 73 58 56 44 43 42 43 46 48 48 51 56 56 53 48 47 41
34 33 31 27 23 30 33 36 38 63 75 83 85 96 96 98 95 93 95 99 99 99 100 100 99 100 100 92 88 90 90 77 67 60 50 46 42 42 42 45 48 52 56 59 57 55 53 52 48
38 38 32 31 25 35 43 46 44 62 68 69 86 95 99 98 95 93 97 98 99 99 100 100 100 100 98 87 78 87 82 74 64 54 50 46 44 46 45 51 54 56 61 58 59 58 57 56 50
30 32 36 31 26 33 44 43 41 57 70 72 75 94 97 96 92 92 97 97 99 100 100 100 100 99 95 89 88 78 71 74 76 73 68 66 62 60 59 64 68 69 65 61 60 60 59 58 56
35 37 38 31 26 37 39 42 41 63 66 64 66 78 92 93 98 94 100 100 99 99 100 100 100 96 84 89 86 80 69 60 60 61 71 73 65 62 64 67 70 66 66 64 61 60 61 60 62
35 38 37 35 28 36 32 36 34 49 58 65 63 68 86 90 95 95 97 100 100 98 100 100 98 95 88 81 74 73 62 53 53 50 54 62 60 63 63 69 68 66 66 65 63 63 63 63 66
36 32 30 32 36 42 30 45 32 43 62 66 61 73 82 85 84 91 94 99 99 98 97 99 94 87 84 80 74 72 68 58 52 47 46 53 57 56 60 66 67 68 65 68 69 68 68 68 70
33 32 34 36 37 35 34 42 35 40 53 56 57 58 70 78 82 87 91 94 99 98 95 96 92 87 82 81 77 74 70 64 54 51 51 48 48 48 52 66 68 67 70 70 69 71 74 75 76
28 31 31 40 42 53 40 42 43 39 38 39 47 50 59 73 75 78 81 87 94 95 96 98 95 92 84 80 76 73 69 68 66 61 59 54 44 44 47 53 62 69 71 75 75 74 77 79 79
33 36 56 60 55 51 38 47 41 32 29 28 34 47 50 62 73 78 83 84 88 94 94 97 99 96 89 85 77 73 72 73 71 68 68 66 59 50 49 46 52 61 67 71 77 83 89 91 90
38 39 63 57 67 54 47 63 46 34 33 30 29 36 44 61 68 73 77 77 81 89 90 90 93 93 91 89 86 84 79 75 72 68 64 63 67 52 48 56 57 62 62 67 76 95 100 100 94
36 44 32 46 62 74 59 46 34 29 31 30 45 48 51 56 64 68 71 72 75 83 87 86 85 88 86 86 84 83 80 73 76 76 74 74 72 71 70 65 61 65 74 78 86 100 100 100 99
31 32 46 59 65 72 58 56 52 36 31 24 35 61 57 52 62 60 66 69 68 73 78 82 79 77 78 79 79 79 79 80 81 79 84 80 77 76 74 80 87 90 87 89 100 100 100 100 100
36 35 38 46 64 67 75 62 46 41 38 27 26 48 58 56 61 62 59 59 65 66 69 74 74 70 69 70 72 73 73 74 75 72 79 76 78 82 92 91 92 99 99 100 100 99 100 100 100
28 34 39 58 52 70 72 51 34 39 38 36 32 28 39 50 54 56 60 58 60 63 67 70 72 70 66 62 63 64 64 64 68 74 82 78 81 75 76 99 96 100 100 100 100 100 100 100 99

GFSSGP_925_rhum_072.txt.gz
RH
21 21 27 26 23 37 34 27 27 22 18 36 53 47 53 75 60 58 84 87 90 100 95 86 65 47 58 55 49 74 96 75 87 83 85 86 88 91 91 90 90 87 86 86 87 87 88 91 96
31 32 31 35 32 30 25 25 22 21 18 46 58 65 70 68 74 79 89 98 88 100 93 87 70 66 69 58 47 51 68 74 88 89 85 88 88 90 87 88 88 84 85 84 83 90 92 92 76
35 38 34 38 44 32 31 23 21 22 46 49 51 68 70 68 74 77 85 91 99 100 97 84 85 88 90 81 67 66 48 54 59 68 79 83 84 90 90 87 82 82 87 93 95 100 95 72 66
26 27 30 35 31 30 27 24 22 22 38 51 58 58 64 77 92 91 84 79 84 96 100 98 88 85 92 90 96 87 93 83 85 81 78 78 84 87 91 87 85 86 88 89 94 98 94 81 69
28 32 34 32 30 26 24 21 35 43 46 51 58 50 66 86 89 76 76 70 75 92 99 99 98 90 90 97 92 87 94 85 82 87 88 76 85 89 93 90 88 87 79 84 96 91 80 77 63
36 33 39 34 29 24 22 20 47 52 54 56 56 62 60 90 78 82 94 91 99 89 94 98 96 84 90 84 79 72 94 85 71 77 82 81 83 87 93 92 88 72 52 65 65 70 68 49 37
32 36 34 30 29 24 17 42 47 48 53 54 58 61 60 72 88 96 100 99 100 100 91 96 86 82 68 64 67 64 86 80 72 83 87 83 81 88 93 92 73 49 54 61 64 59 50 38 41
35 32 30 31 28 22 18 43 52 51 46 60 60 62 61 80 94 99 100 100 100 100 100 92 83 76 88 82 54 67 81 92 73 74 89 88 80 85 80 71 47 46 58 59 61 57 54 47 48
24 34 38 29 24 18 23 35 60 64 74 71 68 83 87 95 93 100 100 100 100 100 100 90 87 84 72 70 58 74 85 97 82 91 85 84 70 67 60 50 42 39 46 62 61 61 58 54 50
28 36 29 24 20 19 19 37 46 60 64 60 68 75 99 98 100 99 99 99 100 100 94 90 88 91 84 70 94 100 100 99 91 82 72 67 44 46 32 35 39 34 33 38 58 62 62 58 53
26 29 24 21 20 20 21 53 61 65 55 56 56 72 95 98 99 98 99 99 99 99 99 99 97 96 99 81 93 97 99 97 100 84 69 36 49 37 30 38 34 34 32 35 49 59 59 59 50
22 22 20 19 18 26 36 50 60 68 49 61 53 82 89 92 95 96 94 99 100 100 100 100 100 99 98 99 90 95 100 100 89 79 62 48 38 33 28 33 33 34 33 33 33 39 49 55 46
22 20 20 20 24 26 43 49 55 61 55 73 69 93 97 87 94 98 97 97 100 100 99 100 100 99 100 100 94 99 100 99 95 93 61 43 34 29 25 32 38 35 34 32 31 33 37 47 49
20 21 26 25 24 30 52 50 55 48 70 82 79 93 95 97 93 94 98 97 100 100 100 100 100 100 100 100 99 97 100 92 84 76 51 33 30 28 30 36 41 40 34 35 34 30 30 42 40
22 27 26 23 22 26 44 44 66 52 73 84 93 92 95 97 99 89 89 92 92 100 100 100 100 100 99 97 97 100 98 98 89 76 54 36 34 35 43 40 49 48 47 45 42 33 32 34 33
25 26 30 20 25 27 34 39 30 49 77 81 91 94 95 97 97 95 98 94 98 96 99 99 100 100 100 95 95 91 96 97 83 81 56 41 50 44 45 48 53 52 54 51 49 40 35 33 32
35 31 32 28 24 34 36 41 31 66 73 75 90 94 95 92 96 98 99 95 98 99 100 100 100 100 100 97 91 90 96 95 83 70 66 54 44 47 47 49 51 56 57 56 53 48 46 44 37
37 40 38 35 26 30 38 48 35 55 76 81 87 92 92 91 96 96 99 99 99 95 100 100 100 100 100 99 99 98 99 98 98 70 57 46 46 47 47 47 48 53 61 58 56 54 53 52 49
32 34 36 34 28 27 31 39 35 43 74 76 79 91 99 99 93 95 98 94 100 100 100 100 100 100 99 98 90 100 99 100 100 84 68 49 47 47 48 46 48 57 58 58 59 61 58 58 55
33 35 38 34 28 32 33 39 34 50 59 69 66 82 93 96 99 99 100 92 98 99 100 100 100 100 99 97 90 91 94 95 82 74 58 52 48 50 49 50 57 62 62 63 64 63 62 64 59
39 36 38 36 33 32 38 43 35 32 56 62 64 66 76 92 98 96 96 93 95 98 99 98 100 99 96 94 91 91 92 87 85 78 69 58 59 49 53 62 62 66 70 70 68 64 63 63 63
38 34 33 35 38 48 36 56 35 28 40 61 66 73 76 89 91 96 92 93 94 98 100 99 96 97 88 90 88 85 79 82 74 73 65 59 71 64 64 59 62 66 70 71 69 67 64 64 67
31 34 37 36 43 41 38 48 40 35 36 33 49 64 72 85 89 96 96 96 97 96 99 100 95 94 88 84 85 79 71 63 58 57 59 62 61 61 61 60 61 62 68 74 74 72 69 68 70
31 34 36 43 50 64 47 46 48 38 34 30 36 49 62 77 87 90 94 99 99 100 97 98 98 95 90 83 76 76 71 66 59 54 52 50 51 52 53 50 50 55 68 69 76 75 79 79 76
34 42 59 63 66 65 42 50 37 32 29 31 32 35 52 64 85 92 97 97 100 100 100 100 94 95 90 88 82 74 68 65 65 58 52 50 48 47 48 49 48 45 49 63 67 74 79 81 84
44 47 68 60 69 52 50 58 45 37 34 36 32 30 40 63 76 86 89 90 96 100 100 100 100 95 90 84 80 77 76 75 71 65 62 58 54 50 50 46 48 49 55 66 67 73 78 99 100
40 50 38 47 61 74 56 46 34 31 31 30 35 39 43 64 80 78 82 84 89 93 95 98 99 98 94 92 88 85 80 77 73 69 63 67 62 58 59 54 52 56 67 72 79 87 87 90 99
34 37 49 63 61 69 58 56 46 35 32 36 29 50 54 60 74 77 78 79 82 87 88 90 92 95 94 92 90 88 84 80 75 72 75 75 73 74 65 58 64 71 74 85 92 96 95 86 98
39 40 40 49 63 61 62 59 49 36 34 35 31 29 59 64 66 70 71 74 76 82 88 90 90 89 91 91 89 88 85 82 79 78 76 74 75 68 66 69 77 86 93 97 100 100 99 100 100
32 38 40 53 52 74 66 46 33 38 38 39 36 34 32 62 64 69 69 72 76 77 86 89 90 86 84 83 82 80 76 73 68 67 68 62 67 69 67 73 80 93 98 100 98 98 100 99 100

GFSSGP_925_rhum_075.txt.gz
RH
19 19 25 22 17 20 18 16 22 18 17 23 45 44 39 48 45 45 91 94 97 96 98 90 77 72 73 69 66 67 78 73 70 80 70 79 82 83 86 88 88 89 91 92 92 92 95 92 95
27 33 29 23 16 19 18 18 18 16 15 46 58 55 56 46 64 68 88 97 97 100 99 99 80 78 68 79 74 80 82 69 63 64 81 87 86 89 89 87 87 86 87 85 85 87 94 99 96
40 37 23 24 26 20 19 18 16 16 20 38 43 57 59 52 66 72 93 89 97 100 100 93 83 74 75 74 94 99 96 79 66 66 86 90 90 87 86 85 86 85 84 81 83 90 97 95 92
28 22 22 24 23 22 20 17 18 20 26 44 48 43 56 67 77 92 92 83 81 100 98 96 94 94 78 73 79 82 97 98 85 82 89 86 84 83 82 83 84 82 80 91 92 94 84 68 77
26 22 24 25 24 22 20 18 20 32 39 44 52 42 53 76 94 82 77 81 86 96 92 96 91 77 71 71 75 80 83 85 92 93 91 87 86 79 77 78 86 89 92 92 93 91 69 64 64
25 24 26 23 22 20 19 18 37 44 43 47 47 49 47 83 82 82 85 94 94 99 97 86 90 68 53 54 72 78 84 81 74 91 85 83 82 78 74 80 84 84 85 85 91 76 66 58 59
25 24 24 25 23 21 17 32 37 39 41 39 49 44 50 69 88 98 99 100 98 100 100 96 88 67 68 74 73 70 65 90 83 84 92 90 80 79 83 85 83 82 86 92 81 73 45 45 53
24 22 28 26 22 19 15 35 42 39 32 55 49 42 47 63 89 95 98 99 98 100 100 100 100 100 91 86 76 69 70 78 98 85 89 88 88 88 89 82 70 76 74 72 68 43 36 42 54
21 24 26 24 24 17 16 25 46 55 48 55 56 60 73 94 96 98 99 100 100 100 100 100 100 97 93 86 80 75 68 72 82 100 94 89 97 94 87 77 55 63 67 64 50 42 47 50 56
21 27 24 20 19 17 17 22 24 45 51 51 61 84 98 94 96 98 99 99 99 100 100 100 99 95 88 81 74 69 80 91 86 96 94 100 96 90 80 55 63 72 68 59 53 53 51 68 77
24 23 22 19 17 17 19 28 38 45 35 36 41 64 82 84 88 87 93 99 99 97 93 91 90 88 88 83 84 95 82 96 100 99 97 88 80 77 63 50 62 82 70 77 66 61 75 76 73
24 21 19 17 18 22 22 34 44 48 28 51 45 65 78 79 82 91 92 100 100 100 96 94 98 96 99 84 98 100 99 100 100 97 92 78 67 60 51 41 40 65 85 84 65 62 54 44 35
23 19 18 17 19 22 28 30 30 43 50 57 68 77 80 74 83 90 90 97 99 99 98 99 99 99 98 92 100 100 97 99 92 96 78 60 48 38 41 38 36 39 52 72 69 67 55 51 39
19 19 18 22 20 22 25 30 48 38 44 60 68 77 85 78 80 91 96 94 98 99 100 99 100 98 98 92 100 100 100 96 80 86 69 51 25 24 34 36 35 35 40 46 47 55 55 71 42
22 24 22 20 18 20 34 32 45 41 60 64 67 75 87 80 81 82 88 90 94 99 100 98 100 100 99 94 96 100 100 95 94 82 58 35 23 20 32 39 36 33 33 37 35 44 74 42 46
25 27 25 19 25 34 30 23 25 35 53 54 71 76 84 87 83 89 89 90 89 97 100 99 100 100 100 100 99 100 100 97 92 87 51 33 23 30 34 39 36 37 37 34 33 56 44 36 41
31 23 27 21 21 35 31 25 22 54 55 53 62 74 78 85 90 89 93 89 94 96 99 100 100 100 100 99 98 100 100 97 93 64 47 35 27 32 38 45 45 46 46 43 35 37 31 36 44
28 32 30 24 26 28 31 26 21 28 46 44 51 65 76 79 82 86 90 90 94 98 98 100 100 100 100 96 95 99 99 93 88 68 49 37 35 42 44 50 51 54 58 52 45 41 40 40 36
26 29 25 26 26 26 22 23 22 25 49 49 55 61 75 79 76 89 93 92 97 99 98 100 100 100 100 100 100 100 100 100 91 69 54 57 58 53 51 56 60 60 57 57 56 50 50 50 46
29 30 28 26 26 28 24 24 21 26 31 34 38 53 63 82 89 90 95 92 95 98 98 99 100 100 100 97 95 99 99 98 90 76 68 57 58 58 58 59 50 47 54 60 65 60 61 63 57
34 34 30 26 29 26 30 26 26 23 36 42 47 46 49 68 87 91 95 87 92 93 98 100 99 100 100 96 94 98 100 100 100 96 79 63 56 57 56 49 48 45 54 60 67 63 61 71 65
41 31 29 30 30 26 33 33 30 24 23 30 30 50 51 61 73 84 88 89 87 89 99 99 100 100 100 94 93 98 98 98 100 90 89 79 66 61 52 51 49 55 65 70 69 69 66 67 77
30 31 30 29 31 34 28 35 31 30 25 21 21 33 52 56 67 81 86 89 87 88 99 95 98 100 98 99 90 95 99 94 94 90 84 71 63 61 58 55 57 58 54 60 64 69 71 71 78
29 32 36 42 41 52 37 36 32 28 25 23 23 27 43 58 64 70 79 87 89 93 97 98 94 95 96 96 91 85 85 82 85 88 86 77 70 63 63 60 53 62 66 62 69 64 76 77 73
31 37 45 56 58 47 39 42 32 26 24 24 24 22 27 53 65 70 78 84 91 95 97 98 97 94 96 92 92 87 82 78 72 74 75 74 71 65 62 64 63 61 58 63 66 68 74 75 92
40 38 48 45 57 43 43 44 30 27 28 28 28 28 28 46 63 69 71 79 87 96 97 98 98 93 94 93 88 90 85 78 73 66 68 66 70 67 59 56 56 56 59 58 52 56 78 89 87
43 48 35 46 58 58 42 38 28 24 24 25 27 26 30 36 54 64 70 75 81 88 92 97 97 90 92 92 88 87 84 81 78 72 64 60 57 55 53 52 52 50 49 52 55 63 69 84 89
33 34 47 50 52 50 44 46 32 29 23 26 27 27 25 44 54 63 67 73 78 82 85 90 88 86 88 91 89 87 85 78 76 74 68 67 67 63 62 57 59 64 57 56 60 74 86 92 93
37 39 42 40 50 44 45 42 40 32 28 30 33 30 28 36 51 60 64 70 75 79 84 88 87 83 84 88 90 87 87 83 76 71 63 65 70 67 58 57 65 61 63 64 77 88 98 99 98
33 36 38 50 49 62 56 39 30 35 31 35 32 31 31 29 43 53 61 68 72 77 80 84 85 83 87 86 87 89 89 87 83 69 61 66 68 65 70 77 68 69 66 72 62 93 99 100 99

GFSSGP_925_rhum_081.txt.gz
RH
14 20 14 12 13 9 8 5 6 8 9 8 12 15 16 17 16 28 50 63 75 72 75 84 69 76 73 90 92 81 71 88 78 76 70 65 81 80 82 85 87 86 94 96 97 97 100 98 87
20 13 14 12 11 10 8 7 9 8 9 10 14 16 16 16 18 26 40 61 67 80 68 70 77 70 72 78 92 89 84 95 92 80 72 74 81 80 84 84 88 84 94 96 96 98 100 96 78
24 17 15 11 10 10 9 9 8 9 10 10 14 16 17 18 27 34 55 63 71 79 81 74 78 69 70 73 91 93 87 89 88 79 71 82 80 83 88 86 90 85 94 95 96 100 99 83 75
18 13 11 10 10 9 10 9 10 10 10 11 12 14 18 27 34 43 58 63 68 88 89 84 81 63 66 76 73 79 79 82 88 87 78 80 83 85 88 89 89 89 89 94 97 99 96 76 69
17 11 12 11 9 9 9 9 11 11 12 14 15 14 17 28 46 53 58 65 65 81 94 97 89 73 75 73 76 84 76 74 92 80 80 81 88 90 90 92 89 88 89 93 96 100 79 72 69
13 10 13 10 8 9 9 10 11 13 12 14 15 14 14 35 42 51 69 68 77 82 96 97 91 86 77 80 74 84 68 60 99 81 76 84 92 91 88 84 80 84 86 87 91 94 78 72 68
14 13 13 9 9 9 10 10 12 12 11 12 13 17 15 26 42 60 75 82 84 83 92 100 98 98 85 76 62 73 80 71 95 76 76 85 80 89 85 80 82 87 83 82 87 78 76 71 70
11 12 12 9 10 9 8 10 11 12 11 16 12 13 15 29 46 58 72 78 88 99 98 99 98 98 93 75 70 85 82 85 95 83 83 78 91 84 81 84 89 83 81 78 62 73 74 66 66
11 13 12 10 9 8 8 11 8 10 12 11 14 17 21 34 48 49 73 84 87 98 98 99 100 100 98 90 87 78 79 84 96 82 84 76 87 85 84 86 89 84 80 66 59 62 60 61 65
13 12 11 8 8 8 8 10 10 10 10 12 16 19 32 35 39 41 47 70 81 91 98 100 100 98 98 97 94 87 82 90 89 82 86 87 86 84 88 89 97 89 78 56 47 43 49 59 63
12 14 9 8 8 7 9 9 8 10 12 9 14 13 16 32 33 36 41 54 73 80 91 99 99 100 99 98 97 90 90 89 93 96 92 83 93 84 74 98 99 99 76 71 63 53 57 50 49
13 11 9 8 8 9 9 9 9 9 11 10 13 14 16 28 30 31 37 45 67 74 88 99 98 98 100 100 96 89 91 94 98 92 98 100 94 88 91 86 86 86 64 64 62 55 47 50 48
12 10 9 8 8 9 9 10 10 10 9 9 14 20 20 24 27 31 37 46 58 64 82 98 97 94 98 99 91 91 98 96 100 92 86 97 100 95 81 67 80 66 59 60 53 50 52 52 52
11 10 11 9 9 9 10 10 9 9 9 13 20 23 22 25 27 30 39 47 53 55 60 89 99 100 92 89 96 97 97 99 98 98 89 88 87 94 72 70 72 60 59 56 49 54 53 52 52
11 13 12 11 10 10 9 11 10 9 9 15 20 25 24 26 28 31 37 44 56 55 52 72 92 90 93 96 94 100 100 100 100 99 100 100 92 92 85 77 70 64 62 59 56 54 47 45 48
15 15 18 12 10 10 10 12 8 7 16 17 18 22 25 28 30 32 39 44 48 52 52 75 92 94 92 96 99 100 100 100 100 100 100 96 90 84 79 76 76 73 70 64 60 52 46 44 43
18 20 17 15 10 10 10 12 9 12 14 16 16 20 24 28 32 33 40 47 53 55 53 69 92 92 96 98 99 100 98 99 99 95 87 78 71 69 61 79 77 77 74 67 64 56 48 45 43
22 18 17 16 11 11 13 15 11 12 13 14 13 16 21 27 30 34 41 47 50 51 57 68 91 97 98 97 99 100 100 98 91 96 89 79 77 70 70 72 64 62 63 62 59 55 50 48 43
18 16 16 13 11 13 14 12 10 10 9 10 12 13 18 22 24 34 43 48 52 56 62 75 96 98 99 99 100 100 100 100 93 83 81 81 77 69 62 60 53 51 52 54 57 54 48 44 41
20 20 18 15 12 15 14 13 10 9 8 8 10 11 15 18 23 34 45 50 56 59 64 73 89 100 99 99 100 100 96 99 88 79 74 74 64 51 46 49 60 49 51 52 56 52 54 50 50
23 24 21 20 15 14 16 17 14 11 10 9 9 11 11 15 21 34 44 51 58 60 65 75 96 99 97 96 100 100 100 100 90 76 62 63 51 52 53 66 62 48 60 67 66 60 58 59 62
31 20 19 19 20 24 15 22 14 10 9 8 12 12 13 13 18 28 43 51 54 58 64 79 93 98 99 94 100 99 96 92 88 83 77 66 58 60 67 66 66 67 74 73 75 70 67 66 72
27 19 18 18 22 24 20 22 17 13 12 11 11 11 11 14 17 26 38 47 51 56 63 79 91 92 95 95 98 98 92 87 91 85 74 69 67 64 64 59 70 62 66 73 72 59 78 68 70
21 20 21 20 22 32 23 22 20 14 13 12 11 10 11 14 17 24 33 43 46 52 61 73 83 89 93 94 95 91 90 98 98 89 83 79 66 62 66 61 58 56 67 72 70 67 75 74 74
23 24 34 37 37 38 20 23 21 14 12 12 13 12 10 13 19 23 31 38 43 50 62 69 75 78 90 92 90 86 88 88 98 86 83 81 78 75 61 65 64 63 60 74 70 73 66 73 75
26 26 32 43 44 35 20 26 19 13 12 11 12 12 12 15 18 20 27 35 41 48 57 62 69 73 85 92 88 83 85 88 86 85 81 82 78 73 65 64 62 60 64 57 73 71 68 83 77
36 33 22 42 36 39 31 22 18 15 14 13 14 14 13 13 15 20 24 34 39 46 52 58 60 63 73 85 88 88 84 83 84 82 79 77 76 71 66 66 71 69 56 59 69 67 67 75 65
32 28 42 38 54 51 32 26 25 19 17 14 16 16 16 14 16 20 23 32 37 43 50 56 56 54 60 71 84 82 82 83 81 86 82 75 71 67 63 68 72 71 63 63 64 63 68 74 73
34 34 44 41 37 48 50 35 19 18 17 16 16 16 16 18 20 20 24 28 35 41 48 56 59 50 52 60 67 71 77 78 78 79 84 81 77 75 67 69 75 69 67 68 67 66 69 71 74
23 27 31 51 50 39 39 42 17 19 23 21 19 16 15 15 17 23 24 27 33 39 46 53 58 52 48 52 58 65 67 70 78 76 75 78 77 76 71 69 73 70 68 68 70 70 70 68 67

GFSSGP_925_rhum_084.txt.gz
RH
20 12 20 15 18 14 12 8 5 7 8 8 9 12 15 14 14 44 48 64 70 74 73 64 60 60 74 88 91 95 82 82 87 75 63 70 76 80 79 81 81 87 89 96 96 97 98 99 78
23 16 12 13 20 14 10 7 8 8 8 9 10 11 13 14 18 33 50 58 63 71 75 85 68 66 66 84 92 89 88 87 84 72 64 76 79 80 82 86 86 89 89 96 98 98 100 88 79
21 19 15 19 17 15 11 8 8 8 9 9 10 12 13 23 30 34 52 59 65 69 72 72 78 66 67 72 87 90 84 85 83 68 72 80 79 81 81 86 87 90 89 97 97 98 92 77 72
20 14 15 17 13 8 9 8 8 9 9 9 9 11 16 24 25 39 55 54 62 78 81 82 80 69 63 72 84 85 89 86 88 74 68 82 79 78 80 83 85 92 90 97 98 98 76 73 68
16 14 17 16 13 9 9 8 9 10 10 11 12 14 17 29 41 46 51 58 61 76 84 96 87 78 70 78 83 86 85 96 93 92 71 80 84 82 80 84 85 90 92 94 99 87 76 73 64
16 14 17 16 12 7 8 8 10 11 10 12 14 14 20 34 39 50 60 61 70 75 89 94 92 86 80 84 83 79 76 53 81 73 97 73 85 82 88 85 88 92 93 92 96 75 68 64 60
17 15 16 14 13 9 8 8 11 11 11 10 12 15 16 32 42 63 68 75 79 79 83 85 95 95 88 77 74 70 63 47 72 70 79 85 80 85 89 87 90 94 88 87 83 72 63 55 61
13 14 15 13 12 10 7 10 9 11 12 12 10 12 18 38 49 58 70 76 80 89 86 92 93 99 97 84 75 72 72 67 70 63 89 86 84 85 86 85 85 86 84 82 80 74 65 56 56
10 15 17 14 11 9 8 10 8 8 10 9 10 12 14 34 48 48 76 75 79 94 98 100 99 91 87 87 78 79 63 69 64 72 98 82 81 88 85 91 88 79 77 79 79 74 65 60 55
12 16 15 10 8 9 7 9 9 9 10 11 12 13 22 28 38 40 53 65 75 85 96 98 99 99 94 88 84 79 74 76 74 74 98 89 80 78 84 91 88 79 68 75 75 68 56 54 46
12 16 12 10 8 8 8 8 8 9 10 10 10 12 16 28 30 32 34 47 68 78 85 96 96 97 96 94 94 89 91 80 90 98 97 90 83 84 92 88 90 86 69 74 64 58 57 44 54
14 11 11 10 8 8 9 8 8 8 9 9 9 10 13 14 26 27 31 41 61 74 80 90 92 91 96 92 86 84 84 90 95 98 91 89 88 96 86 91 99 86 76 62 51 47 58 50 56
12 11 10 9 9 8 8 9 10 10 10 8 8 11 16 16 20 25 28 50 58 64 82 90 93 97 96 93 91 89 91 86 83 86 88 84 86 93 91 90 100 86 63 66 37 57 52 49 49
11 10 10 9 9 9 10 10 9 9 8 8 9 14 16 19 21 23 30 37 50 55 82 84 91 93 89 88 88 88 90 92 95 89 97 93 91 91 84 94 85 70 57 45 51 58 52 51 52
11 13 12 11 10 11 10 12 11 9 9 9 10 16 20 20 21 25 30 38 48 49 80 93 88 90 84 91 96 99 99 93 98 92 98 100 100 100 95 90 75 64 61 45 55 53 54 53 54
16 15 18 13 11 10 11 15 11 8 8 9 11 16 20 22 22 25 29 36 48 49 58 87 92 90 89 84 91 95 99 97 98 92 96 100 100 92 90 80 67 68 61 54 56 54 51 52 53
19 23 19 16 11 11 12 14 10 8 8 12 15 15 18 22 24 26 31 37 42 46 51 80 83 87 91 96 99 99 100 100 100 100 100 100 100 93 82 80 77 77 63 65 55 48 48 47 51
28 23 20 19 13 12 13 12 10 10 12 15 14 14 16 21 24 28 32 40 44 49 50 82 86 85 92 100 100 100 100 100 100 100 100 100 100 91 90 96 89 82 68 64 58 52 47 46 47
22 22 21 16 12 14 15 13 11 11 11 14 13 14 13 18 22 28 34 42 46 49 55 77 85 91 98 99 100 100 100 100 99 94 95 91 93 95 86 84 91 86 69 62 54 50 48 47 48
24 26 24 19 14 14 14 14 12 11 10 10 10 11 13 15 18 30 39 44 48 53 59 86 87 95 95 98 100 99 99 100 96 92 98 99 85 76 78 74 81 83 78 58 55 50 51 50 50
20 27 24 23 17 15 16 18 16 13 11 10 9 9 10 12 18 33 43 47 53 57 62 82 88 97 98 100 100 100 100 98 90 90 84 81 80 76 72 71 62 60 54 52 51 51 51 50 46
32 21 20 22 24 29 18 28 18 14 13 12 11 11 12 12 16 30 42 48 54 58 62 68 79 97 96 100 100 100 97 92 87 85 85 89 81 74 62 60 55 58 54 56 50 55 50 58 56
43 25 31 32 31 28 22 25 21 14 14 11 10 11 14 14 15 26 42 44 51 58 64 70 86 97 95 100 99 100 96 83 84 78 76 77 72 68 61 61 58 60 62 58 60 64 62 66 66
44 44 41 35 32 40 25 26 26 19 16 12 10 11 13 14 16 19 40 42 47 56 64 74 90 95 88 100 100 99 93 83 86 78 69 71 73 67 58 68 69 65 63 64 63 68 71 68 67
30 44 80 74 53 48 23 26 24 17 14 12 12 12 12 14 19 21 38 43 46 55 65 79 87 93 92 100 99 97 92 87 86 82 75 71 77 77 69 68 76 64 60 64 73 72 66 64 58
38 34 70 71 62 45 23 28 21 15 13 11 11 12 12 15 22 23 32 41 44 52 62 69 78 83 93 93 98 95 91 87 85 82 78 73 72 73 74 75 68 56 58 64 67 65 71 59 54
53 46 30 50 54 78 49 22 17 14 14 13 13 14 15 16 18 21 26 40 42 49 60 64 67 73 86 86 92 90 93 92 89 87 82 77 71 69 70 72 72 64 59 57 60 61 61 62 57
43 37 64 68 77 91 42 31 26 21 18 16 16 18 16 14 15 18 21 39 39 46 57 65 61 64 76 86 84 86 89 90 88 90 84 78 72 68 72 73 71 68 60 61 61 68 65 66 67
45 66 75 67 58 98 86 49 35 27 23 22 21 19 20 20 21 19 23 34 38 43 50 62 59 60 66 85 85 81 84 88 88 85 86 81 75 73 72 71 72 71 69 67 71 73 68 67 69
36 43 55 93 88 61 80 69 29 28 22 23 25 20 19 18 18 22 24 29 36 40 46 55 59 54 56 69 83 83 84 81 87 88 85 84 78 72 70 64 66 69 71 73 76 72 67 66 70

GFSSGP_925_rhum_087.txt.gz
RH
15 17 13 22 31 32 28 19 10 9 14 13 14 16 17 16 27 68 62 59 76 72 66 63 62 71 80 81 77 67 65 65 60 62 52 52 58 61 65 63 66 82 86 93 96 91 96 100 78
18 18 20 24 32 38 31 14 11 14 13 12 11 12 14 38 47 60 64 65 73 74 73 66 61 63 76 85 86 82 70 76 67 61 49 60 61 70 72 73 78 85 88 95 97 93 98 83 78
16 23 26 30 35 33 25 11 14 12 11 10 10 11 15 42 42 56 60 65 71 78 83 79 70 62 62 68 82 86 85 86 74 70 60 62 68 70 78 82 86 85 88 96 93 98 89 76 75
21 28 25 30 34 23 19 12 11 12 11 10 9 16 27 30 38 53 57 64 66 75 81 81 78 68 64 63 68 86 85 82 74 76 69 78 74 77 81 80 83 87 90 94 93 91 76 72 71
21 29 32 32 27 17 14 12 11 11 13 12 12 15 39 48 51 54 56 62 72 80 86 86 82 72 67 73 74 83 95 97 86 81 87 98 76 81 85 80 82 89 90 90 94 76 70 70 72
27 28 34 34 23 16 12 11 11 12 12 14 14 15 41 47 51 58 61 65 78 82 90 96 91 83 76 76 86 87 100 92 77 58 81 83 96 82 86 83 86 92 93 88 80 74 70 72 75
29 31 32 26 21 17 13 12 13 12 13 15 14 20 47 54 58 58 63 73 74 83 85 86 93 95 86 83 82 88 87 86 74 65 59 51 92 85 85 85 87 95 88 81 78 75 70 67 68
23 26 28 24 21 18 12 12 12 13 13 15 12 15 51 60 66 64 64 69 79 82 77 78 86 89 94 81 79 79 74 66 66 69 71 68 81 89 82 81 80 89 83 76 77 72 68 66 57
17 27 27 22 19 16 11 11 11 12 12 11 13 13 30 59 61 72 74 83 79 72 86 82 94 88 95 89 83 75 70 65 73 73 94 87 85 97 80 78 89 88 80 67 69 64 63 61 53
22 26 23 16 15 15 11 11 11 12 13 13 15 17 46 56 65 81 82 83 81 86 88 89 91 95 91 96 87 80 77 68 77 74 99 98 98 91 84 78 86 86 80 66 70 61 62 55 53
19 23 17 15 13 15 13 11 10 11 12 11 12 25 46 51 52 60 78 79 78 82 85 89 98 92 91 85 82 80 77 71 81 77 86 96 96 89 80 86 93 92 83 80 73 63 57 54 49
22 17 15 14 12 13 13 10 12 11 12 10 10 12 35 39 46 47 50 75 78 83 83 84 98 92 93 91 84 87 84 82 84 81 97 83 94 91 91 93 88 82 78 75 76 58 54 46 51
20 16 14 13 12 13 13 12 12 12 14 12 10 11 18 20 34 34 48 68 74 80 80 79 86 97 92 91 89 87 88 87 87 92 94 97 92 87 94 98 93 74 63 68 61 51 42 50 52
18 16 15 13 12 12 13 13 12 12 11 11 11 13 20 22 23 35 64 67 71 76 77 82 86 92 96 91 88 89 90 88 91 99 98 87 90 95 90 99 92 80 47 55 49 54 44 54 55
20 22 17 15 15 15 13 17 15 14 12 12 11 15 20 24 23 34 50 63 60 67 74 85 82 79 85 88 93 92 94 91 91 92 96 96 94 95 86 100 96 75 36 38 58 60 41 48 54
26 24 26 19 16 14 14 19 15 14 13 13 12 16 25 26 26 29 38 49 54 64 78 88 90 79 80 93 92 93 94 95 95 99 96 94 90 90 95 99 94 73 40 38 59 56 52 50 56
32 39 30 22 15 15 16 18 13 12 12 13 12 19 26 30 29 31 41 48 49 59 82 90 84 84 79 89 81 81 88 90 84 88 100 100 98 96 100 100 80 71 39 50 62 56 54 55 54
44 38 31 28 20 17 18 18 13 13 14 16 21 21 24 29 32 34 41 48 50 57 79 82 86 87 89 92 84 93 100 100 99 98 95 98 100 100 100 93 87 68 48 54 59 54 52 54 54
33 36 33 26 18 19 19 19 15 13 15 19 22 23 22 27 30 35 42 46 50 70 82 87 89 92 89 100 100 100 98 100 100 100 99 99 99 98 100 98 82 77 65 58 53 49 51 54 53
35 48 53 31 23 22 22 22 17 14 15 17 20 21 20 24 31 42 49 52 52 70 77 85 87 92 90 99 99 100 98 100 99 100 100 99 100 100 99 88 78 82 67 56 51 49 51 53 50
46 39 40 34 26 24 29 25 22 16 15 15 15 15 16 19 32 48 53 57 61 75 83 85 86 87 89 98 98 100 100 100 100 100 100 100 98 91 85 90 95 84 65 56 50 47 46 50 48
50 35 31 45 64 76 36 49 26 19 17 15 14 15 15 16 35 48 54 61 66 75 72 76 84 88 86 95 100 100 98 97 97 97 98 99 100 95 97 86 88 81 75 61 51 47 43 49 51
50 43 48 66 68 57 48 49 31 21 21 19 15 14 17 17 44 50 56 58 66 70 75 79 85 82 90 99 96 99 98 91 90 94 95 96 95 91 89 82 74 76 68 61 49 50 50 45 50
56 79 70 65 70 94 65 54 38 25 20 18 16 15 15 20 43 49 52 61 67 69 76 82 84 86 99 100 99 99 95 90 90 86 91 93 85 78 73 69 68 68 59 52 49 49 46 49 54
80 89 100 99 99 88 44 52 40 24 18 18 17 15 16 19 39 51 57 63 68 74 82 83 82 90 96 100 100 97 91 88 87 80 82 86 83 78 71 66 58 55 61 56 56 50 52 49 69
65 88 95 85 92 78 38 44 30 19 16 16 15 17 19 25 44 52 54 59 67 74 81 85 86 85 94 100 100 100 92 86 85 77 75 79 79 75 74 75 70 55 59 61 66 56 55 62 67
78 88 57 88 73 100 72 48 22 18 17 17 16 16 20 30 46 51 52 55 64 73 82 83 86 85 87 100 100 100 96 87 84 81 73 72 73 72 70 71 70 69 68 60 69 69 64 66 67
69 73 79 98 92 96 63 53 42 29 22 20 22 25 26 23 27 44 50 53 58 69 81 83 83 87 89 90 99 98 96 91 88 83 78 74 70 71 70 71 75 75 70 64 60 67 67 64 62
65 96 92 80 77 99 98 82 59 48 31 33 28 27 25 26 28 34 46 49 54 66 75 78 82 83 90 83 94 92 98 92 90 88 83 79 75 73 71 66 67 79 75 74 71 75 72 71 69
69 80 82 99 82 80 98 91 60 62 41 28 26 22 25 23 29 33 46 49 54 63 71 71 72 74 88 86 84 85 83 97 94 94 89 86 83 77 73 72 70 76 77 73 72 75 71 72 75

GFSSGP_925_rhum_093.txt.gz
RH
31 27 18 23 31 40 38 28 19 17 14 15 15 17 19 32 24 32 66 63 68 61 64 66 62 56 54 52 50 52 52 50 52 59 70 72 71 76 82 80 80 88 95 95 93 86 92 98 92
27 25 22 32 37 40 33 27 22 18 14 14 19 35 41 51 62 70 76 70 67 62 63 69 74 64 59 57 52 51 53 55 56 60 64 67 69 72 74 78 84 89 96 96 94 95 89 99 86
25 28 33 33 46 41 30 21 15 15 15 15 13 20 44 48 63 73 62 66 68 65 64 64 68 70 61 58 57 55 54 58 59 62 72 73 72 72 73 74 81 85 89 90 96 89 93 94 86
22 33 37 40 42 38 27 20 20 17 14 13 16 35 39 50 67 58 61 71 72 69 69 68 66 70 74 72 65 60 61 62 68 60 70 73 72 70 72 80 86 86 86 87 92 89 95 90 91
24 39 42 42 41 33 26 21 17 18 15 14 17 32 49 56 58 57 63 76 77 77 76 71 70 72 75 79 81 77 76 75 67 70 83 85 84 82 80 76 83 84 85 87 89 92 94 91 89
30 39 47 46 32 26 22 20 18 20 17 15 20 54 58 66 68 72 72 78 81 81 85 79 79 80 82 85 92 93 90 92 85 87 91 92 89 83 76 76 77 84 89 91 87 93 89 86 86
34 42 45 38 36 28 22 17 17 16 15 17 23 53 62 70 75 74 75 81 84 86 91 88 87 86 88 88 90 95 97 97 87 80 82 81 71 70 80 66 80 83 83 86 90 91 86 84 83
34 38 39 38 33 30 19 15 15 16 15 18 41 57 69 69 75 77 79 81 84 87 88 88 84 84 84 87 93 98 99 90 92 92 90 84 81 82 69 58 79 92 79 82 91 88 89 87 85
28 40 47 33 32 26 18 18 15 14 15 17 19 54 44 65 82 87 93 97 99 96 90 83 80 84 83 81 92 98 90 98 98 90 90 92 93 81 80 73 62 94 85 79 84 85 87 81 76
37 47 41 28 25 22 21 20 20 16 16 16 15 64 75 82 90 94 93 94 93 94 90 83 83 85 81 78 89 99 100 100 92 90 86 91 93 85 79 77 73 73 96 78 81 86 84 69 74
36 34 30 25 23 21 21 22 18 16 18 16 16 57 88 84 85 87 87 78 75 76 83 84 86 87 85 78 85 96 96 94 91 83 75 77 82 84 78 79 72 94 97 77 80 89 72 70 81
36 29 25 25 22 22 22 19 19 17 16 15 14 53 85 89 84 82 85 79 72 68 70 80 89 93 86 75 92 88 85 81 74 76 85 93 93 94 94 91 84 99 97 83 84 77 65 69 79
38 31 27 24 24 22 21 22 21 18 21 16 17 69 80 79 79 73 75 77 75 74 69 75 87 90 82 74 82 94 90 90 84 88 93 91 100 97 99 100 94 90 79 81 82 71 68 72 74
28 29 29 27 26 22 21 20 20 18 16 17 20 62 74 73 74 74 77 81 82 76 72 72 83 86 82 76 76 86 88 91 97 93 91 99 96 90 90 100 97 93 81 81 79 68 70 67 67
28 31 29 29 25 25 19 24 23 19 18 17 16 24 61 64 63 65 64 81 78 74 71 75 79 89 82 85 87 95 97 92 100 98 89 98 100 84 86 98 99 96 86 76 71 68 65 66 66
34 34 41 28 28 24 22 29 21 18 18 19 18 18 24 44 55 56 55 66 76 82 76 76 83 86 84 88 92 92 93 94 98 99 92 97 99 100 100 100 100 100 83 79 69 72 66 69 72
43 52 43 35 25 23 24 26 19 17 18 19 19 19 18 21 35 45 50 61 70 76 76 78 81 87 86 91 90 91 91 93 95 100 99 97 100 100 100 100 100 96 84 79 70 70 64 68 72
55 53 44 40 28 34 38 39 30 26 21 26 23 20 19 19 31 37 56 65 77 78 79 78 84 89 94 95 95 97 96 95 97 98 100 100 100 100 100 100 99 98 82 83 74 62 63 63 68
42 46 50 42 34 43 42 46 42 36 38 37 34 28 22 18 18 34 64 75 85 88 88 89 94 95 99 100 100 100 98 87 85 84 87 100 99 100 100 100 100 97 83 76 68 65 60 67 74
38 45 44 44 40 38 49 51 40 36 41 34 32 27 23 18 44 52 71 82 92 98 100 100 97 100 100 100 100 99 99 82 77 85 82 86 93 100 100 99 99 99 77 71 69 59 68 73 77
31 38 43 45 42 46 52 45 36 27 30 31 31 29 23 19 43 61 71 89 96 99 100 100 100 99 99 98 89 93 93 87 90 91 86 88 100 99 100 100 99 96 72 70 73 58 63 72 78
70 41 43 45 63 63 58 58 36 33 39 36 32 30 24 25 40 60 67 86 93 99 100 99 100 99 99 91 84 81 96 98 99 93 95 98 98 99 99 98 99 100 88 74 73 63 59 66 71
68 51 52 48 77 89 78 88 42 43 45 38 33 28 24 20 36 57 67 72 87 99 100 100 100 99 100 92 82 79 96 100 97 99 99 100 100 98 99 99 100 100 83 76 68 71 60 58 66
60 62 62 74 81 89 63 76 56 44 43 37 30 28 24 22 25 48 56 67 88 100 100 100 99 99 99 93 85 80 92 90 100 100 100 100 100 100 100 100 100 100 90 89 88 75 66 65 59
76 81 97 98 96 86 54 72 58 42 35 33 30 25 22 23 26 48 64 76 97 98 99 99 99 100 100 96 90 84 85 89 98 92 99 100 100 100 100 100 100 98 85 87 89 82 83 68 63
92 77 91 88 93 85 49 65 53 37 32 33 28 27 24 23 31 52 61 73 92 97 98 99 99 99 100 100 94 85 85 93 97 91 96 97 98 99 100 100 100 98 96 98 92 91 74 65 63
81 89 80 100 100 99 75 60 45 59 59 52 44 41 35 24 27 52 60 74 84 95 98 100 100 99 98 98 96 89 84 88 93 94 94 96 96 98 98 98 94 98 96 91 86 74 72 67 67
77 81 99 100 97 96 75 68 76 87 83 67 59 40 38 51 53 53 65 73 80 89 96 99 98 99 98 96 98 91 86 83 81 87 91 93 94 94 92 97 98 89 87 89 90 87 79 76 70
83 91 96 97 100 98 91 87 83 93 87 82 75 57 46 46 68 69 68 72 78 86 94 97 97 99 100 96 95 99 93 90 84 86 87 84 86 88 87 88 92 87 81 77 82 87 86 81 66
77 79 91 100 98 93 92 85 90 89 80 72 74 64 51 50 62 73 72 74 82 87 92 95 94 95 100 97 94 98 97 92 91 90 85 84 84 85 86 83 82 77 75 73 74 75 75 69 66

GFSSGP_925_rhum_096.txt.gz
RH
31 29 19 23 30 42 39 30 22 18 15 15 16 20 21 29 41 32 60 62 56 52 54 59 62 63 62 59 57 56 56 58 62 64 64 62 64 68 75 81 83 85 90 94 88 92 90 96 94
30 25 22 34 36 36 29 29 25 21 15 16 27 39 34 41 62 70 72 65 63 58 56 58 58 58 60 60 59 58 59 62 68 73 72 72 70 71 72 81 79 83 83 92 96 95 90 94 90
26 26 32 35 47 36 25 25 19 18 16 15 14 22 38 42 62 66 55 56 65 63 58 60 60 59 58 56 54 57 59 62 68 77 78 75 74 76 79 85 85 87 88 89 95 98 91 94 88
28 34 39 40 41 37 26 20 23 20 16 15 15 25 39 53 62 48 49 55 64 65 62 64 67 72 66 64 58 58 59 58 65 78 78 85 92 92 88 86 87 84 88 91 96 94 91 95 88
26 41 42 44 45 34 33 27 22 20 17 16 24 27 41 55 60 57 53 60 63 67 68 70 73 79 80 79 75 72 72 74 72 68 71 72 81 84 79 82 78 79 81 89 95 92 93 93 88
35 42 49 34 26 31 26 22 20 20 20 20 18 41 50 64 64 69 61 65 67 64 70 73 78 83 86 95 92 90 82 79 72 67 74 81 75 61 83 69 83 84 82 83 93 90 95 92 91
29 46 49 41 37 29 25 21 20 20 19 19 27 44 52 74 73 76 68 73 77 76 76 78 80 83 87 92 93 95 94 89 84 77 83 78 77 78 69 65 65 66 90 87 88 94 98 96 90
38 40 44 42 26 31 20 17 15 17 16 21 39 40 43 74 76 81 82 84 85 87 87 87 86 85 84 88 93 96 100 98 90 83 87 82 78 69 65 56 53 61 90 93 88 97 99 92 87
33 41 50 37 35 27 20 20 17 16 16 15 20 40 51 70 83 88 97 97 97 96 92 91 89 88 87 86 86 99 99 99 100 86 89 92 79 70 65 63 63 76 82 87 95 94 92 87 84
37 49 35 29 26 23 22 21 20 18 20 18 15 61 82 89 95 98 99 98 97 99 94 88 86 88 87 84 79 85 98 100 99 94 93 91 79 78 80 84 76 76 80 83 89 87 86 86 84
43 37 32 28 27 23 23 25 20 19 22 19 16 22 90 94 95 95 95 95 99 90 92 85 86 87 84 82 74 87 96 94 98 98 95 94 94 88 83 69 80 85 83 93 92 92 90 85 83
41 36 30 26 25 25 26 23 22 22 19 18 17 22 90 93 94 92 92 91 88 88 85 82 86 92 87 82 77 83 98 100 95 100 99 94 89 95 92 87 85 88 85 99 99 87 80 76 79
43 35 30 27 26 25 24 26 25 23 22 19 20 43 80 89 89 84 84 83 78 77 74 81 84 94 89 87 84 80 91 95 94 92 86 79 79 82 91 94 96 100 96 99 100 87 76 75 77
27 32 31 31 30 29 27 26 25 22 20 20 20 31 67 84 83 83 84 80 72 63 64 77 83 93 93 88 82 83 89 85 80 79 82 93 94 100 99 99 100 97 100 97 98 85 75 79 80
29 32 29 33 29 29 25 30 30 24 22 22 20 22 43 75 76 83 78 78 65 63 64 70 74 91 95 86 76 79 80 88 93 100 92 90 93 99 99 100 100 95 90 99 96 79 78 83 83
37 38 48 33 31 28 26 31 24 21 22 23 22 20 26 59 73 70 71 75 71 70 67 70 71 85 96 88 83 80 76 79 85 99 100 99 94 96 95 91 95 95 96 100 87 74 81 83 77
46 57 47 37 30 26 31 30 20 23 23 26 23 24 22 24 49 60 60 62 70 66 70 73 75 80 96 96 91 86 84 71 81 87 99 97 98 97 97 99 98 92 100 96 87 74 72 78 79
53 56 51 46 32 33 34 32 35 32 32 29 38 38 34 26 22 23 42 56 63 69 75 74 78 82 95 99 98 98 97 96 95 87 97 94 99 98 95 100 100 96 100 94 88 71 73 70 74
40 48 51 44 37 43 48 50 45 43 41 46 43 41 38 34 25 19 19 46 73 80 83 81 82 89 98 100 99 100 99 100 100 100 100 99 99 100 99 100 100 99 100 91 81 77 75 84 82
34 42 46 42 39 42 47 45 38 39 37 33 36 32 37 31 28 26 35 70 81 88 92 90 94 97 100 100 99 98 99 100 98 95 96 96 100 98 100 100 99 99 100 94 82 79 82 88 89
33 35 36 40 38 42 51 37 27 27 28 31 35 33 33 33 31 37 71 86 91 97 94 93 100 100 99 99 99 99 99 100 98 83 85 84 83 94 100 100 100 99 99 90 82 72 72 83 87
56 43 41 46 52 69 60 63 35 30 28 27 27 37 37 34 29 34 64 85 94 95 96 96 99 100 100 98 98 100 99 99 97 81 84 88 82 88 89 100 100 100 98 98 89 74 68 75 84
66 60 59 58 62 90 80 79 47 39 44 40 33 33 38 34 29 51 60 73 90 95 95 98 99 100 100 97 100 98 95 91 95 89 90 81 86 95 100 92 99 100 99 92 86 69 67 71 80
64 64 64 75 83 97 67 72 55 43 36 37 34 34 34 32 28 45 56 71 93 97 95 99 100 100 99 99 99 87 87 99 100 98 88 99 99 98 99 99 99 100 99 94 89 71 64 64 76
73 73 91 86 92 78 57 68 57 43 37 40 41 35 34 32 27 39 66 78 96 96 96 98 98 99 100 99 97 87 84 89 86 100 92 100 99 99 98 98 99 100 100 97 83 82 74 72 74
86 71 90 90 91 86 65 77 65 57 65 64 63 49 41 39 32 31 56 69 89 92 93 96 96 100 100 99 97 88 85 86 86 97 99 98 99 99 99 100 100 100 100 100 100 93 80 87 74
84 92 73 98 77 97 79 63 49 72 75 72 67 66 65 60 48 36 49 63 88 91 91 94 97 99 98 100 99 89 89 88 88 97 96 87 98 98 98 100 100 100 100 99 95 91 83 81 80
74 79 100 98 97 98 80 76 77 90 91 79 71 68 70 62 54 52 48 68 90 92 90 95 97 96 99 100 100 92 91 88 85 92 96 93 91 95 100 100 100 100 96 99 100 100 98 91 72
84 81 96 98 100 99 94 83 89 90 90 83 73 64 71 71 68 73 72 78 87 92 92 97 98 97 97 99 100 99 94 88 85 90 93 96 97 95 95 100 100 99 96 95 100 98 97 94 86
72 79 74 100 95 100 98 85 90 91 83 72 72 63 68 76 82 81 82 85 94 96 94 96 99 99 96 94 97 97 95 90 86 86 89 92 93 96 93 94 97 94 93 95 95 90 90 88 87

GFSSGP_925_rhum_102.txt.gz
RH
30 30 18 14 12 10 8 6 9 10 11 10 10 14 14 14 16 15 35 48 59 60 66 72 55 66 64 59 56 61 66 72 76 72 66 73 76 81 87 86 85 85 85 91 91 90 92 93 86
30 22 14 12 10 8 6 6 11 9 10 12 12 15 15 13 19 22 38 51 56 57 68 79 57 65 64 59 56 58 65 75 82 75 74 77 79 85 84 81 81 83 84 87 89 90 93 92 87
28 17 11 10 9 8 6 6 8 11 11 11 14 15 13 13 21 21 32 48 54 57 63 76 58 61 62 60 57 55 60 71 76 78 77 76 82 77 77 75 83 83 82 79 77 95 93 91 89
20 13 12 11 8 8 8 7 10 12 11 10 10 11 18 23 22 25 39 50 52 58 64 80 54 58 63 62 59 56 57 65 75 82 80 78 77 69 72 70 70 73 73 73 81 93 92 92 91
17 11 10 11 8 6 10 10 13 13 12 11 10 11 17 28 35 36 42 52 53 64 68 78 60 64 64 65 63 59 61 63 73 92 90 89 75 71 66 69 66 67 73 74 76 78 81 91 90
14 12 11 8 7 8 10 8 12 13 10 10 11 11 13 28 38 40 47 53 62 73 80 86 70 68 66 65 64 65 65 65 61 92 78 70 70 66 48 63 65 57 60 71 72 68 76 87 89
16 12 9 7 6 7 9 8 10 8 8 10 10 13 12 25 36 49 54 56 68 79 87 90 95 97 91 84 76 70 71 70 68 71 68 71 74 69 74 66 62 49 57 70 73 76 77 78 71
13 11 11 8 10 9 8 10 8 8 10 14 13 13 14 29 47 57 56 62 73 82 85 86 88 93 98 99 96 87 82 77 68 74 76 73 75 76 75 67 59 61 69 68 59 71 76 76 73
15 16 13 10 11 9 11 12 10 10 11 11 12 14 26 40 53 56 55 56 66 76 78 84 83 92 94 95 98 96 94 91 81 75 72 67 80 86 81 75 73 75 75 64 61 65 75 82 77
20 19 15 10 10 11 10 11 11 12 10 12 11 24 31 38 47 50 53 51 59 71 74 76 81 80 94 95 99 98 100 98 96 93 88 79 78 81 76 78 71 80 73 64 68 76 79 82 87
20 19 14 14 13 11 11 10 10 11 9 10 10 12 10 20 28 38 43 40 49 60 73 74 81 82 83 77 100 99 94 98 97 93 98 97 93 88 83 81 83 88 73 82 77 86 90 83 94
24 16 16 14 13 13 14 11 12 11 11 8 8 9 10 11 16 26 32 40 45 55 73 87 82 85 87 74 96 98 97 99 99 97 93 96 100 100 98 98 88 92 91 92 95 95 90 95 92
25 20 16 17 15 14 13 14 13 12 11 10 10 10 12 10 11 16 23 30 39 52 68 91 90 84 84 83 87 99 97 98 100 93 85 98 100 99 86 87 75 87 97 89 96 98 89 96 92
20 21 18 17 17 16 17 16 15 15 14 13 13 13 11 10 11 13 18 27 35 45 56 72 87 90 81 79 80 78 84 99 100 97 87 90 99 96 91 90 99 97 100 96 99 94 97 93 87
18 21 18 18 19 20 18 20 19 15 14 14 13 12 11 10 10 12 16 22 31 39 51 68 85 90 84 81 81 75 69 95 100 95 91 96 99 99 99 98 99 100 100 99 100 99 95 92 84
23 23 28 20 20 17 18 23 14 14 15 17 15 14 14 13 10 11 16 22 25 33 44 60 81 86 96 82 80 73 72 88 93 96 94 99 99 99 99 99 95 98 100 100 98 99 100 92 82
27 30 31 26 22 20 20 21 14 13 14 14 14 14 14 14 13 13 15 20 26 32 42 55 76 87 100 99 84 79 95 100 98 99 99 99 98 96 99 100 97 99 99 100 100 100 98 94 80
29 29 27 27 21 23 23 22 17 16 17 18 16 17 16 16 15 14 14 16 21 32 43 54 68 84 100 99 85 79 100 99 100 99 98 98 96 98 97 100 98 100 100 100 100 100 100 90 80
21 21 22 19 21 28 24 23 20 18 19 21 19 19 17 16 14 13 14 17 20 28 42 53 63 76 100 100 93 94 100 98 100 98 99 100 100 98 99 100 99 100 100 97 98 100 99 97 84
22 23 23 19 19 23 22 21 17 16 17 17 18 18 17 17 16 15 15 16 20 24 41 51 58 70 92 86 81 83 95 100 99 99 100 100 100 98 98 93 98 99 100 100 99 99 100 100 87
23 24 23 25 20 19 22 22 17 14 14 15 15 16 15 16 16 16 16 16 17 24 35 48 54 63 80 70 73 82 88 99 99 100 99 98 100 99 99 96 93 100 99 99 100 98 92 98 93
26 21 24 24 25 27 32 22 18 16 17 17 18 19 18 18 17 16 16 16 16 22 31 43 50 59 76 73 75 84 81 82 81 87 98 99 98 100 100 100 100 96 98 99 100 100 95 87 86
26 26 25 25 30 33 30 37 19 18 17 26 33 36 36 36 32 25 20 18 17 18 31 45 51 57 72 78 75 80 70 69 72 80 93 92 88 94 98 99 99 100 100 100 100 100 99 90 82
36 41 43 42 39 51 30 30 20 23 29 33 41 39 39 38 37 35 27 22 20 18 29 52 55 60 70 81 79 77 72 70 72 81 76 79 85 82 87 95 99 100 100 100 99 94 93 89 84
42 45 61 71 77 42 31 35 24 33 46 45 43 40 41 42 42 40 34 27 22 22 44 56 59 61 77 90 81 80 81 76 72 72 69 68 80 87 84 91 99 100 100 100 99 99 92 90 89
46 39 40 40 42 34 42 42 32 44 45 40 37 38 42 46 52 49 39 32 25 34 51 58 59 63 86 94 87 82 84 76 72 75 65 69 73 83 89 89 97 100 100 99 100 100 100 100 94
50 62 43 63 56 58 29 29 32 39 40 40 38 43 49 52 63 65 47 36 30 40 54 62 62 66 87 92 93 93 82 75 72 73 74 77 88 94 98 98 98 100 100 99 100 100 99 100 98
44 44 67 60 69 60 35 36 37 47 47 43 43 44 52 59 74 77 58 43 32 46 59 73 76 77 91 96 96 95 80 78 76 78 81 83 93 98 98 98 100 100 100 100 100 100 100 100 100
61 61 60 55 68 65 50 49 52 46 41 45 43 44 58 69 79 82 78 59 47 52 64 82 84 84 94 99 98 88 80 80 79 78 83 84 92 99 100 99 100 100 100 100 100 100 100 99 100
43 48 50 60 76 62 68 44 46 36 35 41 44 56 59 64 78 80 85 79 66 60 73 84 85 92 98 100 99 87 82 81 79 78 84 87 88 95 99 98 96 100 100 99 99 100 100 100 100

GFSSGP_925_rhum_105.txt.gz
RH
27 31 18 10 12 8 6 5 4 7 8 7 7 9 10 10 12 19 22 38 41 43 61 57 53 58 62 58 55 55 59 69 78 72 65 69 73 82 82 82 78 81 84 82 82 82 88 93 85
28 20 12 9 11 7 6 4 5 6 8 9 9 11 11 12 11 18 24 37 34 37 61 70 52 58 58 55 53 54 61 76 81 74 72 69 75 85 86 84 83 83 83 80 84 87 92 88 84
29 15 10 9 9 7 5 4 4 5 8 9 10 9 9 10 12 14 23 30 30 35 48 66 50 58 58 55 54 57 65 77 82 78 76 72 80 86 76 82 80 81 81 76 78 77 86 84 86
20 13 10 11 9 6 5 4 4 7 8 8 8 10 10 13 15 16 23 28 30 34 41 64 52 59 61 59 57 61 69 77 81 82 94 78 78 74 72 70 76 78 72 72 75 73 77 84 86
16 10 10 8 8 5 4 5 7 8 8 8 8 9 11 15 16 19 26 30 32 38 45 70 56 58 61 61 59 61 65 77 93 97 95 92 78 74 70 66 66 72 72 69 70 71 75 82 87
15 11 11 9 7 5 4 5 7 10 8 8 9 9 10 13 22 24 29 34 38 47 54 84 70 60 65 65 63 63 65 69 94 99 91 79 75 71 68 68 64 68 64 65 64 66 76 78 73
15 11 10 8 6 5 4 6 6 8 8 7 7 10 9 13 19 26 31 38 47 58 67 83 94 90 67 68 67 65 64 66 68 85 79 75 74 71 68 69 63 61 64 66 63 60 71 73 68
13 12 12 9 8 6 4 5 6 6 6 8 8 10 11 21 25 36 35 41 53 65 73 77 85 92 94 92 74 70 68 65 67 69 77 80 75 73 67 66 65 62 54 68 60 71 75 74 69
13 16 14 11 9 7 5 7 6 5 5 8 9 10 18 22 26 37 36 42 52 62 68 72 74 79 82 90 92 82 78 75 71 76 80 78 83 80 80 75 73 65 59 70 65 72 78 81 81
17 20 16 9 8 7 7 9 7 8 8 8 10 11 17 20 25 33 34 38 42 53 60 63 66 69 74 87 92 92 94 92 90 86 88 89 77 84 81 80 76 69 63 71 68 67 80 82 80
17 20 15 12 10 9 8 8 7 8 9 6 9 9 12 12 17 25 28 31 34 39 49 55 64 65 73 76 75 76 78 85 90 90 86 83 76 83 82 81 84 83 71 81 72 76 78 79 87
19 16 15 14 11 11 12 10 9 8 8 7 6 6 8 9 10 15 21 26 29 34 44 51 57 66 69 59 76 88 83 84 82 92 94 93 91 89 87 79 84 80 86 82 89 93 80 86 85
18 16 15 13 12 12 12 12 11 11 9 8 8 7 7 8 9 9 13 19 22 28 37 50 55 65 68 69 67 69 76 91 91 92 97 95 93 94 90 89 87 76 85 92 99 92 83 91 91
17 16 17 15 14 14 15 14 13 12 11 11 10 9 8 7 9 8 10 13 17 23 32 47 63 66 68 68 70 72 82 90 93 93 90 95 94 92 91 93 94 92 89 89 97 96 86 95 89
18 21 18 17 17 16 15 18 17 13 12 12 12 12 10 9 7 8 9 11 15 18 26 48 67 70 69 68 68 68 65 74 95 94 96 99 98 96 97 100 96 90 95 94 98 98 100 96 99
20 22 25 18 15 15 16 22 14 11 12 13 13 12 12 10 9 7 8 10 12 15 21 37 58 69 73 65 66 64 58 64 87 98 99 100 100 96 96 94 94 96 95 97 98 99 98 98 94
23 26 24 20 14 15 16 20 14 12 12 13 13 13 12 12 11 9 8 9 11 13 19 32 53 69 74 68 66 66 61 65 65 76 86 97 99 95 93 93 91 92 97 99 99 100 99 100 90
28 26 22 20 17 16 20 20 15 13 14 14 13 12 12 12 11 10 9 9 11 13 19 28 47 68 74 73 69 65 65 83 75 76 80 87 89 91 90 92 96 98 100 98 100 99 100 97 94
22 21 21 18 15 18 21 20 16 14 13 14 15 15 14 14 12 11 11 10 11 14 22 31 42 63 75 89 72 61 74 98 94 99 90 81 79 80 87 91 99 98 99 98 100 100 99 100 96
24 26 23 16 13 19 21 20 15 13 13 13 14 15 15 14 13 12 12 12 13 15 20 32 39 54 72 89 68 56 77 93 83 92 88 85 76 81 87 96 98 100 99 100 100 99 100 100 100
27 27 24 16 14 14 17 18 14 11 11 11 11 12 12 13 13 13 13 13 14 15 19 26 37 46 63 72 67 64 77 85 86 87 91 90 82 83 93 97 99 99 99 99 100 99 99 98 95
30 23 19 16 20 24 13 18 13 12 12 12 12 13 14 14 14 13 13 14 14 16 17 22 31 39 52 68 60 61 62 74 79 82 90 85 84 89 95 100 97 100 99 100 99 100 99 99 99
24 16 17 19 23 21 16 21 16 12 13 17 22 30 29 28 28 27 25 21 15 15 17 21 26 35 45 63 58 59 62 66 67 70 80 88 84 86 98 99 100 96 100 100 98 98 96 99 94
18 22 24 23 23 34 23 19 16 15 18 21 29 29 30 30 32 30 28 26 21 17 17 20 28 34 42 59 62 60 66 59 58 62 76 89 88 84 87 98 99 97 98 99 99 99 99 96 97
23 32 52 55 47 39 16 19 15 23 30 31 32 30 30 33 37 40 40 33 25 21 19 21 31 34 41 58 61 63 66 58 58 64 65 63 81 78 82 90 99 100 99 99 94 100 100 98 91
34 35 39 49 40 28 23 26 19 24 32 30 27 32 32 36 41 46 52 47 32 26 21 20 26 37 39 56 60 63 64 61 61 64 58 57 70 78 78 83 90 100 100 100 99 100 97 100 96
53 47 28 56 44 46 32 23 32 30 35 37 34 31 36 38 47 55 60 61 53 31 22 23 36 40 40 60 65 65 67 64 61 63 58 58 62 77 80 80 81 98 99 100 100 100 100 100 100
42 30 53 49 50 41 18 20 55 52 37 33 33 34 43 42 51 64 65 70 68 40 26 41 47 43 61 85 80 73 71 67 64 66 63 64 73 77 87 91 92 97 100 99 100 100 100 100 100
48 52 52 45 51 55 32 51 40 35 30 33 33 52 50 51 54 68 70 77 78 72 40 51 54 53 85 92 91 81 74 68 67 68 68 77 83 81 86 92 99 99 99 100 100 100 100 100 100
28 35 39 50 55 44 52 52 32 27 25 30 50 58 53 52 55 64 72 77 81 90 68 74 73 83 86 96 94 83 76 70 70 68 70 76 85 82 85 89 99 100 99 98 99 99 100 100 100

GFSSGP_925_rhum_111.txt.gz
RH
11 21 24 30 34 28 26 18 12 10 8 8 9 14 13 17 29 58 57 38 35 37 49 56 46 52 57 57 56 58 61 62 63 62 55 55 58 60 60 66 72 73 79 77 77 80 82 79 75
9 24 30 34 28 29 24 14 13 8 9 11 9 11 12 26 30 45 60 50 38 34 43 43 42 49 57 59 58 57 60 64 65 64 60 62 62 60 64 71 74 77 78 82 79 80 80 72 72
14 28 41 36 31 24 22 12 10 9 10 10 9 9 9 23 34 37 51 48 33 40 42 41 42 47 55 58 56 57 59 64 70 69 65 66 64 62 65 70 75 79 76 79 76 74 75 72 74
17 35 40 30 28 19 14 10 9 8 9 8 9 11 15 18 29 36 44 40 35 48 41 40 43 49 53 54 54 58 61 68 75 75 71 68 66 65 69 70 78 79 76 75 74 70 77 75 75
28 37 39 31 25 16 11 9 8 8 8 10 8 10 21 20 28 31 41 41 50 59 42 41 43 48 51 52 53 60 63 71 80 78 75 70 69 68 69 70 79 77 75 72 74 75 75 78 80
34 32 36 33 25 16 11 8 7 8 9 9 9 10 19 26 27 27 33 41 43 52 45 44 45 48 50 52 54 58 64 70 81 83 80 76 73 70 69 73 80 78 73 72 72 75 76 79 77
38 35 34 29 23 18 13 9 8 7 10 10 8 10 15 27 25 27 34 37 44 48 50 44 50 53 52 54 55 56 61 66 80 98 97 88 78 73 71 75 79 80 74 70 72 73 75 76 74
34 38 40 30 24 19 11 9 7 8 10 9 9 11 22 22 27 33 40 43 48 58 55 50 53 59 55 57 56 56 60 63 59 82 99 91 84 78 74 74 76 81 77 71 72 70 68 65 64
24 38 40 35 25 18 12 12 9 6 6 6 9 10 25 28 32 44 54 62 63 72 70 59 57 61 57 55 58 59 62 64 71 72 87 89 89 84 75 72 74 74 80 75 73 66 66 64 60
36 41 35 23 20 18 14 12 10 7 8 8 8 26 22 25 32 48 64 73 75 80 82 75 63 63 63 60 62 62 64 67 70 74 78 85 87 86 81 75 74 72 76 74 72 68 67 67 62
31 38 29 25 21 19 18 16 13 9 10 9 9 25 24 24 25 42 51 65 68 70 82 84 81 69 73 78 74 69 68 70 71 70 72 77 87 87 85 81 78 76 74 69 72 75 75 76 64
25 27 26 24 22 22 21 17 17 13 10 10 9 12 14 22 25 33 40 51 66 72 72 78 79 81 83 83 77 78 74 75 74 72 72 77 82 89 85 86 82 77 77 72 72 78 79 77 68
18 18 20 21 21 21 19 18 18 17 14 11 11 10 11 16 19 19 22 35 57 67 70 70 73 78 83 79 75 78 78 79 80 83 86 86 83 87 87 89 83 85 83 76 77 82 83 76 70
20 17 16 19 20 19 19 18 18 16 14 13 13 13 12 11 11 10 13 20 42 58 64 65 67 69 74 72 74 79 84 84 84 83 88 89 86 85 83 86 90 87 90 87 82 84 82 75 73
25 28 21 18 17 20 18 22 19 17 16 15 14 14 14 14 12 12 10 9 10 39 56 63 62 65 70 69 76 77 70 83 87 86 83 78 88 91 86 88 87 87 88 88 89 89 87 83 82
27 28 36 23 19 18 20 28 19 17 17 18 17 16 15 16 14 11 9 10 7 8 46 59 63 67 69 68 70 75 73 71 77 75 81 74 76 88 90 90 89 89 88 88 89 93 95 92 87
36 45 38 30 21 20 22 26 20 19 18 17 16 15 15 16 16 12 11 10 10 8 16 58 64 70 67 71 66 72 75 75 75 75 77 79 79 89 92 90 89 85 92 94 95 97 91 100 98
44 46 39 35 26 22 24 24 22 20 19 18 18 18 16 14 16 13 12 11 10 9 10 48 63 68 68 72 70 72 71 76 76 76 77 83 82 86 90 89 91 87 93 95 95 92 100 99 95
30 37 38 29 23 24 26 24 22 18 16 17 17 19 16 19 17 14 13 12 11 10 12 53 64 75 78 76 75 76 74 81 81 82 72 74 83 89 91 94 93 93 93 90 83 94 100 100 100
23 26 28 24 20 22 30 47 33 19 17 16 18 19 21 17 16 15 16 16 14 11 11 48 69 75 75 77 77 76 74 75 75 80 78 75 81 85 92 95 94 91 92 90 83 90 100 100 95
20 23 24 25 20 27 49 50 35 25 17 19 18 18 18 20 20 17 16 17 18 17 13 48 69 79 79 79 79 74 73 72 76 80 82 81 79 80 85 90 90 79 79 94 90 94 93 99 100
22 15 17 19 23 64 57 56 23 23 20 16 16 16 19 35 34 36 44 43 34 28 24 52 71 77 78 76 76 75 79 88 84 81 80 84 84 82 88 91 90 87 84 96 98 95 95 100 99
18 16 17 27 72 67 60 45 28 20 18 16 15 38 42 51 53 56 58 57 60 63 65 64 49 79 78 77 74 74 79 82 89 88 84 79 79 86 84 86 87 86 88 99 98 99 96 100 99
17 22 54 53 57 86 41 38 37 22 18 36 44 50 53 57 58 59 58 60 64 69 69 71 69 58 76 79 76 75 77 85 89 88 92 88 86 83 89 85 87 83 92 99 99 99 98 99 95
25 48 82 78 95 78 38 38 35 34 34 45 55 58 57 60 64 65 67 69 70 73 72 73 78 76 64 75 75 73 74 80 83 82 91 93 90 89 90 89 86 83 92 99 100 99 100 95 96
32 48 83 77 90 63 31 43 32 22 51 56 55 56 58 63 64 66 68 71 74 75 76 81 87 88 71 76 73 73 72 78 80 79 87 90 89 93 86 90 87 88 88 99 100 100 100 96 94
36 46 48 81 65 80 45 72 51 54 50 61 59 60 62 62 63 68 67 70 73 78 80 85 93 98 79 59 76 74 72 73 76 78 82 87 82 85 84 88 89 83 83 88 100 99 100 97 97
34 30 62 95 92 95 54 91 86 92 89 77 77 75 71 67 66 67 68 72 75 80 83 89 96 99 76 50 76 74 71 67 73 69 79 82 80 81 86 86 88 93 92 90 100 100 100 100 99
75 68 80 85 90 97 92 99 95 98 94 93 80 76 77 78 77 75 74 77 80 82 86 92 97 100 100 72 77 74 74 66 74 70 74 73 75 74 79 85 91 90 99 93 100 100 100 100 100
81 71 67 95 98 92 100 99 96 95 88 78 79 74 72 73 74 74 76 80 82 85 88 92 97 100 100 94 92 81 72 66 76 73 68 70 77 77 75 77 82 90 100 99 100 100 100 100 100

GFSSGP_925_rhum_114.txt.gz
RH
14 19 24 29 29 34 32 28 18 16 12 8 11 14 16 26 29 42 64 53 41 48 57 58 57 58 55 55 57 58 59 60 58 53 53 54 57 57 63 68 70 72 74 73 73 75 77 77 78
14 29 31 39 39 34 31 22 19 14 11 12 13 13 17 39 46 69 63 56 43 42 55 57 57 57 56 56 57 58 60 62 62 58 57 57 58 56 62 67 69 72 75 77 77 76 75 73 71
21 31 39 44 46 38 28 17 14 11 10 10 11 10 20 39 57 60 46 45 41 43 50 55 57 58 56 56 56 58 61 65 66 63 60 59 60 61 64 67 71 73 77 80 82 79 74 71 74
18 37 45 50 40 29 20 11 11 11 9 9 10 10 20 32 49 51 44 40 35 43 46 48 56 53 54 54 54 55 59 66 69 68 63 63 64 64 68 69 75 76 78 79 80 77 78 75 79
29 47 50 50 44 28 18 15 13 12 10 9 10 11 25 30 43 47 46 35 30 41 43 49 52 49 51 50 49 50 53 67 71 70 66 67 68 66 70 73 79 81 78 78 75 76 78 75 78
38 43 50 46 27 22 19 15 12 12 10 10 11 18 25 36 60 57 34 26 25 34 46 53 55 48 47 45 47 48 51 60 74 74 71 70 69 68 73 76 82 82 78 75 72 74 76 77 79
39 43 43 41 32 26 20 14 13 12 10 11 10 14 26 42 52 51 52 42 39 35 45 52 55 52 48 45 47 50 52 59 72 76 76 73 69 71 74 77 84 82 76 72 72 72 73 75 78
42 47 53 33 27 27 19 15 10 11 10 9 10 12 40 32 45 60 63 62 60 45 42 49 54 55 53 51 50 52 52 54 57 72 82 79 73 73 74 76 82 81 77 75 72 69 71 71 74
29 50 44 36 39 28 21 18 14 10 10 8 10 17 28 36 66 78 87 88 76 64 48 50 55 56 56 56 58 58 56 53 58 74 85 90 81 78 76 74 80 81 79 74 72 68 65 63 72
38 49 40 32 30 29 24 21 18 13 12 9 29 30 38 56 65 75 87 96 95 84 70 55 57 57 61 63 63 63 60 60 60 68 79 88 88 82 80 76 77 79 80 77 73 68 66 67 70
40 41 32 31 28 27 26 25 21 21 20 11 24 34 41 51 60 68 73 82 75 69 72 60 56 61 62 65 67 65 62 62 63 66 75 84 89 89 85 81 80 77 78 80 77 75 71 67 68
19 21 28 30 28 28 29 26 25 21 17 13 12 30 32 40 54 61 68 71 78 80 66 65 56 58 64 64 66 65 64 63 62 63 71 82 89 90 89 85 80 78 76 77 75 73 73 70 68
22 16 15 16 21 26 24 26 25 24 21 16 15 17 22 28 40 50 59 63 69 81 80 69 63 57 58 65 67 67 65 65 61 63 66 72 83 87 89 87 83 80 76 74 71 67 73 74 76
35 31 24 18 17 17 24 25 24 22 18 18 18 15 14 14 24 26 45 60 72 70 73 68 71 69 66 65 67 66 67 66 66 67 67 72 75 81 88 85 87 85 80 77 75 72 75 77 78
24 36 34 30 24 21 18 23 26 20 20 18 17 17 17 16 13 14 14 33 62 70 65 74 71 73 76 74 72 69 71 70 76 77 78 80 85 83 87 89 91 90 88 85 81 79 82 84 82
23 27 36 27 27 25 23 28 19 18 19 20 19 18 19 18 16 11 9 10 25 58 69 76 79 75 75 78 74 72 71 79 82 83 84 86 90 89 89 88 87 90 90 92 90 86 91 90 85
32 31 31 33 26 28 27 27 19 17 20 19 21 19 18 18 19 15 11 10 9 14 51 71 76 76 80 80 77 75 75 83 81 85 87 88 84 80 90 91 88 90 93 95 94 95 95 99 98
31 35 37 46 32 30 31 28 22 22 22 20 19 21 20 19 18 15 14 12 11 10 16 48 71 71 79 83 85 86 82 80 81 85 84 84 79 79 88 93 92 93 90 93 98 100 100 100 99
29 29 32 33 29 30 32 29 25 23 20 21 22 23 22 20 17 14 13 13 12 11 13 33 68 74 86 86 90 92 88 80 76 75 74 78 79 78 81 94 93 94 83 84 92 98 100 100 99
34 33 29 24 24 25 28 52 47 40 37 26 20 21 21 21 20 20 17 15 17 21 18 32 56 74 81 83 84 84 88 92 86 82 76 74 80 81 83 91 90 95 91 88 93 97 100 100 100
43 36 29 25 19 18 28 55 51 41 33 27 24 18 19 18 23 47 62 69 70 70 63 65 69 71 80 80 86 83 87 94 94 86 78 78 80 80 86 94 91 94 95 97 100 93 93 100 100
77 34 25 23 26 38 56 86 57 36 27 28 22 22 40 60 65 66 69 72 74 73 69 66 79 84 83 81 86 89 90 88 86 92 90 82 75 76 87 93 96 95 95 86 86 94 84 93 100
54 54 31 22 26 52 52 94 65 29 24 25 41 64 68 69 69 71 72 71 76 76 74 69 66 77 86 88 84 85 82 78 79 86 91 85 80 78 83 88 96 97 94 82 78 87 89 88 97
38 54 45 65 80 81 60 78 45 44 44 52 68 69 70 70 70 70 69 71 74 78 80 78 78 75 73 94 88 86 83 85 90 90 94 94 88 85 84 86 92 95 94 90 88 91 96 95 97
56 70 87 76 90 75 47 71 52 59 72 74 78 76 73 70 71 72 74 74 74 79 82 83 89 90 81 69 91 90 82 85 84 91 91 95 96 93 91 91 90 94 93 90 93 98 99 98 97
48 54 68 71 87 73 40 54 43 83 78 74 75 76 74 74 74 75 74 76 78 79 83 85 88 91 97 93 71 93 87 88 85 88 95 93 92 88 84 89 91 93 90 79 91 99 100 99 99
63 65 48 76 87 82 52 76 79 75 85 85 83 84 85 83 83 82 78 80 82 82 84 86 90 93 96 100 97 72 91 92 90 84 84 88 88 86 84 91 99 95 88 76 90 99 100 100 100
73 46 70 90 84 94 73 96 97 98 98 94 88 87 82 79 80 80 79 81 83 84 86 88 93 96 99 100 98 77 87 88 87 85 83 86 86 90 91 93 98 95 90 77 90 96 99 100 100
61 63 80 70 93 99 95 97 100 100 100 100 98 89 84 79 79 80 78 82 85 87 88 91 95 98 100 100 100 92 90 91 87 83 82 83 82 82 85 91 97 100 100 90 94 95 98 100 100
81 68 66 82 89 93 98 98 100 100 100 99 98 94 85 79 80 81 82 85 88 92 92 93 97 99 100 100 100 100 97 96 93 89 83 87 87 86 79 86 95 100 100 99 98 100 100 100 100

GFSSGP_925_rhum_117.txt.gz
RH
18 19 29 27 25 38 35 28 20 16 11 9 11 13 17 28 36 39 67 58 44 54 58 59 56 56 56 56 56 56 55 53 51 52 53 55 58 63 68 70 73 78 77 75 74 73 75 75 75
13 29 30 39 30 28 29 26 20 18 13 13 12 13 17 36 49 72 72 63 47 52 56 59 58 58 58 58 58 58 58 57 54 55 56 57 60 66 69 73 76 78 77 77 75 75 75 74 73
26 32 38 45 51 28 20 20 15 13 12 11 10 11 20 37 61 67 55 63 52 54 55 57 60 60 59 57 57 58 58 59 58 56 57 60 62 68 73 75 77 79 79 88 88 76 75 71 73
24 36 46 55 47 41 21 14 12 13 12 11 10 11 19 38 57 49 57 51 51 54 54 54 58 61 60 55 54 55 57 59 60 58 58 62 64 68 73 75 77 82 88 94 98 75 71 73 77
32 50 46 62 57 40 22 18 15 16 13 13 11 12 25 49 46 50 50 45 42 54 55 52 55 56 59 54 54 55 56 57 61 60 61 64 66 69 72 75 76 78 82 85 86 78 75 76 80
36 49 60 45 22 23 22 21 19 18 14 14 10 13 35 37 53 56 51 51 46 46 51 55 58 56 57 52 53 54 54 54 59 62 62 66 68 70 74 75 78 79 78 77 75 78 76 76 82
37 51 52 44 32 28 22 19 20 16 16 14 10 13 30 70 56 57 57 55 51 43 52 58 58 60 55 52 52 50 50 53 60 65 64 66 69 73 77 77 80 79 76 73 73 73 77 76 85
46 49 57 38 26 26 19 17 14 14 14 11 10 15 44 52 66 68 64 61 54 53 54 55 60 60 55 54 52 50 51 54 61 67 68 67 71 74 79 78 82 80 76 71 70 70 76 80 79
35 55 43 36 33 27 21 22 17 13 13 14 10 15 31 52 71 79 87 86 78 72 63 62 62 58 55 55 56 55 57 58 63 69 71 71 73 76 79 80 83 81 77 70 69 70 74 77 73
38 60 39 33 27 29 29 28 26 20 21 17 18 29 54 76 80 90 90 92 91 85 72 70 66 59 59 60 62 66 67 69 70 74 76 77 75 77 78 80 84 84 80 71 68 67 71 70 69
45 41 33 31 31 33 32 33 24 26 27 21 21 19 66 69 77 82 82 84 77 69 73 64 61 60 61 63 65 68 71 73 75 75 72 78 81 82 82 82 86 88 86 77 74 72 70 70 69
19 21 27 30 28 29 35 32 32 28 27 21 17 14 35 72 73 74 78 81 84 84 59 57 56 57 60 59 62 62 68 72 75 78 76 81 83 84 85 84 82 88 88 84 77 75 72 72 69
23 16 14 16 16 16 17 21 31 29 24 23 21 21 18 36 66 64 65 72 85 88 77 61 58 54 53 56 62 60 63 65 67 72 78 80 81 79 84 86 84 85 87 86 81 75 76 74 72
31 21 20 19 24 28 23 19 19 18 20 23 23 23 19 28 32 50 62 70 83 78 79 66 56 55 57 59 58 57 58 59 62 66 71 78 74 77 80 88 87 85 84 80 76 71 73 72 75
22 25 21 19 22 31 23 28 24 16 19 24 22 19 21 18 21 30 45 66 70 78 75 71 62 58 51 52 54 59 59 62 62 63 67 74 76 78 80 85 88 86 85 82 78 76 74 77 81
26 26 31 21 24 24 34 40 26 21 20 20 23 20 20 19 18 16 30 48 60 70 78 81 85 77 65 59 54 57 61 61 62 61 65 69 74 77 82 86 86 85 88 86 85 83 85 87 87
32 36 32 26 18 25 28 38 27 23 22 20 19 21 19 20 21 16 13 23 43 51 62 74 81 80 77 81 78 78 80 71 69 66 66 71 77 82 86 88 87 86 93 95 91 90 93 97 97
47 36 30 33 24 31 34 36 28 26 24 23 21 19 18 18 20 17 13 13 12 23 53 60 72 73 76 93 95 93 93 90 82 70 76 78 80 85 92 93 92 91 93 96 97 100 100 100 100
40 44 44 33 25 28 25 28 27 24 34 29 23 20 22 19 18 16 15 14 16 16 36 65 73 76 92 97 98 100 99 87 88 83 83 82 85 89 90 90 93 94 95 93 88 98 100 100 100
33 52 51 39 31 31 26 24 22 23 27 32 37 29 25 21 19 39 70 74 68 66 30 30 68 69 83 91 92 92 94 96 92 93 88 85 87 88 84 85 91 97 100 94 87 95 100 100 100
33 33 43 57 42 28 26 26 18 17 28 32 35 33 29 22 61 70 70 80 80 80 80 74 69 73 84 86 91 90 98 96 100 98 92 87 86 87 83 80 85 95 98 86 79 96 100 99 100
56 36 34 59 63 55 42 56 51 43 39 34 29 76 80 77 72 72 75 79 82 83 80 79 86 83 87 87 90 96 92 94 92 88 87 83 80 78 82 81 84 90 96 95 85 87 99 98 98
61 34 38 56 72 48 32 71 51 48 40 67 81 78 78 77 76 76 75 76 81 85 86 85 79 87 94 87 87 95 91 90 90 96 96 90 80 77 81 85 83 92 96 99 100 100 98 100 95
39 53 59 65 63 71 36 58 67 92 92 86 82 80 78 77 76 74 74 76 80 84 87 88 88 85 81 86 99 95 95 90 88 95 100 100 98 89 86 87 84 91 96 98 98 99 89 97 94
50 62 88 81 90 81 49 67 60 94 92 93 93 87 84 83 81 84 84 81 81 85 88 88 89 91 94 89 84 94 98 90 82 68 93 100 99 98 86 92 92 96 95 97 98 99 96 86 92
47 63 82 70 74 68 54 86 100 95 92 80 81 81 78 81 79 80 80 81 85 86 89 90 91 91 95 98 99 97 88 99 90 59 83 89 92 92 91 99 97 94 93 94 97 95 96 87 96
60 65 44 67 64 91 67 99 94 94 96 99 92 91 90 85 80 79 78 83 84 88 91 92 93 94 97 99 99 98 100 94 96 89 89 86 85 89 89 97 99 99 95 86 93 89 88 91 97
56 65 78 83 71 83 90 86 97 95 99 100 99 99 96 89 87 84 82 83 86 90 92 94 95 97 99 99 99 100 100 97 99 97 89 86 86 92 89 98 100 100 100 84 92 86 80 93 97
77 85 75 61 70 96 96 97 100 99 100 99 100 96 97 96 90 87 85 90 91 90 92 96 97 98 99 100 100 100 100 100 100 100 95 90 96 96 96 98 100 99 100 96 96 90 82 93 100
83 67 62 75 73 91 93 98 100 100 100 100 99 100 98 96 85 83 84 90 95 96 95 94 98 98 99 100 100 100 100 100 99 100 98 99 99 96 96 99 100 100 100 100 99 93 91 94 100

GFSSGP_925_rhum_120.txt.gz
RH
18 19 27 25 25 37 30 20 24 16 13 11 12 11 13 22 44 48 66 67 40 43 53 54 54 55 54 53 50 47 46 46 47 54 60 64 63 64 68 71 72 75 87 78 77 76 74 72 71
14 28 29 40 23 19 18 28 22 18 13 15 12 12 21 28 47 67 75 64 47 42 54 56 56 56 56 56 55 53 49 48 48 51 53 56 60 65 69 71 72 76 86 81 78 76 76 74 72
26 32 33 40 45 21 13 16 20 14 13 13 11 11 14 33 54 67 57 55 53 51 55 57 58 58 58 58 58 57 54 50 51 52 54 56 60 66 69 75 79 90 92 91 98 77 75 73 70
28 36 47 47 44 39 17 15 13 15 13 13 11 12 12 30 52 51 54 51 49 53 56 58 59 59 59 59 60 60 58 54 52 54 54 58 64 67 71 79 85 91 89 99 98 74 73 71 73
34 49 31 57 52 40 28 22 19 17 16 14 13 14 15 41 52 45 54 57 56 58 60 60 60 60 61 61 61 61 60 58 56 56 56 59 63 67 72 77 83 85 87 90 75 70 70 75 81
27 51 53 39 27 30 23 23 22 21 19 18 13 12 24 45 58 74 67 67 60 59 63 63 63 61 61 61 61 60 60 60 59 58 58 61 63 67 72 79 81 84 85 84 74 70 71 79 84
29 54 48 43 34 28 21 18 19 19 18 18 11 13 14 51 51 67 86 75 68 62 66 65 64 62 62 60 61 57 58 60 61 61 60 62 64 68 72 78 80 77 73 74 70 72 73 81 86
48 49 53 37 30 29 22 18 16 18 16 14 11 15 15 41 69 66 82 79 74 68 64 63 62 62 63 64 62 57 57 59 63 64 63 63 66 69 72 76 80 78 74 71 70 72 74 79 84
42 57 54 40 34 29 22 25 23 18 17 16 14 17 22 34 69 76 80 82 84 80 72 66 64 68 64 65 62 58 57 61 68 70 68 69 71 73 76 77 83 79 75 70 71 70 75 77 82
41 66 42 36 29 30 32 34 33 28 28 26 22 21 41 82 86 85 86 89 91 85 78 66 66 67 70 70 64 60 61 68 73 75 75 76 74 75 77 78 86 82 77 72 72 70 77 76 75
43 47 36 34 33 38 36 36 33 34 34 25 26 24 56 73 84 82 76 73 71 72 72 67 64 68 77 76 82 75 78 73 74 73 78 80 80 82 82 83 90 89 83 77 77 77 78 74 70
21 22 24 24 21 22 22 30 29 23 24 25 27 26 29 52 72 83 80 74 71 66 69 70 65 66 72 72 86 94 90 79 77 72 78 85 86 87 86 84 86 90 88 80 77 78 76 72 69
44 28 25 22 21 21 24 29 22 21 18 17 24 24 25 27 55 64 70 74 82 78 76 69 69 64 70 75 88 98 99 86 76 73 74 79 90 89 89 86 86 88 90 85 80 78 77 74 72
29 25 24 21 21 20 20 21 30 23 16 19 23 28 25 25 27 50 66 68 77 83 72 73 68 66 66 71 71 82 94 89 80 71 70 73 88 95 88 89 87 88 90 88 85 79 78 76 75
24 29 24 21 20 22 28 34 29 19 22 22 20 19 23 23 22 34 54 65 68 82 78 72 65 72 63 57 59 59 55 63 71 67 66 74 80 85 79 84 88 88 88 87 86 83 83 85 82
28 29 32 21 21 19 22 22 20 27 29 28 24 20 22 21 23 20 33 55 62 77 82 74 75 71 71 62 63 64 66 61 58 60 64 68 77 71 73 79 86 89 90 88 87 86 88 89 86
34 41 33 27 21 22 25 28 24 22 26 27 26 24 25 22 24 19 17 30 50 61 75 85 84 72 65 71 69 60 70 69 66 66 65 70 73 76 75 79 80 89 92 93 90 90 87 90 92
56 45 43 42 34 34 37 35 24 19 18 27 24 25 25 20 18 17 17 16 25 52 64 70 77 75 72 85 90 76 74 71 68 65 62 66 72 78 80 81 82 86 95 96 97 98 100 100 99
39 45 49 39 34 39 43 38 30 25 23 21 31 36 34 27 20 28 36 35 24 22 52 77 91 87 96 100 100 100 100 90 74 76 66 64 69 75 81 87 88 89 95 99 100 98 100 100 99
39 42 43 35 33 36 42 47 33 26 22 19 21 19 27 33 38 68 76 77 77 76 69 40 72 90 99 100 100 95 100 100 99 94 86 80 69 77 82 90 93 95 99 100 99 89 98 100 99
51 52 47 40 31 31 46 57 40 26 22 16 14 37 67 72 81 74 76 82 82 82 83 83 64 83 90 97 100 98 99 99 100 100 98 81 76 79 78 86 91 91 100 99 94 77 90 99 99
73 44 44 46 48 74 57 85 50 31 29 83 82 83 83 82 78 76 76 78 86 87 86 89 94 88 92 99 99 93 94 94 98 99 100 85 81 78 84 86 90 85 96 100 87 76 71 93 98
59 51 52 55 56 58 66 84 43 41 87 87 82 87 85 84 86 86 82 81 83 87 89 89 91 94 100 100 97 95 97 94 91 94 95 99 100 100 92 92 94 91 96 100 86 83 80 80 96
50 58 59 61 68 84 59 59 63 98 99 94 91 88 86 82 80 80 80 83 84 88 91 89 89 92 93 94 100 100 99 96 95 95 97 100 99 100 97 93 88 87 88 100 100 99 88 91 84
59 69 86 87 94 80 46 50 96 100 98 98 96 94 89 82 82 83 83 81 85 87 90 90 92 93 96 94 93 97 100 100 94 92 99 100 100 99 94 100 97 93 93 98 99 98 99 100 100
61 67 77 74 74 89 62 83 100 100 98 97 97 94 88 89 85 86 84 83 86 89 92 93 93 94 97 96 96 97 96 96 100 98 97 99 97 74 49 67 100 100 100 99 100 100 100 100 95
46 69 44 59 64 75 85 99 82 82 92 100 100 97 99 94 90 91 87 86 87 89 93 96 95 95 97 99 99 99 98 99 99 98 98 92 85 56 42 64 100 100 100 100 99 100 100 99 92
52 58 81 81 92 83 94 95 94 92 97 97 97 99 100 99 94 89 86 90 91 91 92 95 98 98 99 99 100 100 100 99 99 99 99 98 86 71 59 84 100 99 100 100 100 100 100 99 96
82 82 82 75 75 96 95 96 100 98 100 98 98 99 99 98 100 97 88 90 92 91 92 95 97 99 99 99 100 99 99 99 99 100 96 100 100 94 91 100 100 100 100 100 100 100 100 98 89
86 72 71 86 68 92 94 98 100 100 99 98 98 99 98 100 98 100 94 88 90 92 92 93 96 97 99 99 100 100 100 100 100 100 100 97 97 100 100 100 99 100 100 100 100 100 100 96 92

GFSSGP_925_rhum_123.txt.gz
RH
22 18 27 22 12 17 16 9 19 14 15 12 12 10 9 13 34 25 61 56 55 55 50 52 53 55 52 46 47 48 47 44 46 52 59 60 64 64 64 66 72 82 75 79 78 75 74 72 70
18 30 28 25 10 8 6 15 12 11 10 12 11 11 14 14 21 31 61 71 57 61 50 54 53 55 54 50 49 50 48 48 50 58 62 66 66 65 69 69 74 74 77 75 76 76 74 72 72
29 31 20 22 18 7 6 8 9 11 11 11 10 10 10 17 37 49 58 61 63 71 53 53 53 56 56 52 50 50 48 50 54 59 65 64 64 68 70 71 70 76 79 80 82 79 74 72 73
31 30 31 21 18 18 10 12 13 12 10 12 11 9 10 20 45 58 60 66 80 81 64 50 54 57 57 56 54 51 50 49 50 52 56 61 64 65 68 69 72 85 88 96 97 75 74 73 73
34 29 17 32 26 27 24 19 18 15 14 13 13 10 11 12 52 56 63 65 82 80 66 53 56 58 59 59 58 56 53 51 50 52 54 59 61 64 67 71 82 89 87 98 78 73 71 69 73
18 32 24 21 19 23 18 15 17 17 14 14 13 13 14 32 56 81 66 85 90 84 67 59 59 62 62 61 61 60 56 53 53 54 58 60 63 65 70 73 87 89 86 83 69 71 68 70 75
16 26 24 29 25 22 18 16 16 16 16 15 11 12 12 18 52 50 87 80 74 73 66 66 67 67 65 64 63 62 61 58 55 56 59 61 65 69 72 76 83 87 86 79 70 68 70 72 77
33 31 36 29 24 24 19 18 16 17 16 14 12 13 16 20 49 67 81 88 80 74 71 69 76 75 70 69 66 65 65 62 59 59 61 63 68 73 74 78 80 83 79 73 71 69 72 75 78
37 38 38 31 29 26 21 29 24 22 23 21 18 17 20 66 78 84 90 95 95 83 84 80 74 76 74 70 69 67 68 67 64 63 64 69 86 85 81 86 79 77 75 70 70 72 74 77 82
31 44 36 30 27 29 32 30 26 27 26 25 24 21 23 34 76 73 74 76 87 93 88 90 86 84 82 82 75 79 79 78 74 71 71 88 94 96 96 89 82 81 76 72 72 74 75 81 84
36 32 35 31 29 21 21 20 20 22 24 25 24 21 18 19 22 45 64 71 75 79 92 98 95 90 89 96 95 92 97 90 83 79 77 77 81 83 90 94 96 97 85 86 83 81 84 78 78
18 21 20 18 19 18 19 18 21 20 20 17 16 16 15 14 15 18 39 64 68 73 83 95 100 99 97 98 98 100 99 100 96 86 78 78 82 84 91 96 93 100 99 97 96 96 75 76 74
36 32 22 19 18 16 15 15 17 17 17 16 16 17 17 17 18 20 27 39 66 68 74 92 100 100 99 99 99 100 99 98 100 96 85 79 81 81 86 92 91 98 95 96 84 84 78 78 71
22 22 22 19 19 18 18 14 16 12 12 16 15 14 14 16 15 16 19 34 60 64 70 83 95 98 100 100 100 100 100 98 99 96 83 86 85 83 82 86 89 93 94 91 94 81 79 88 76
24 27 19 15 17 17 17 12 15 18 13 18 20 20 20 20 18 18 18 19 35 50 68 70 69 97 98 99 98 96 100 100 100 98 96 90 98 96 91 87 90 90 94 95 94 88 82 93 79
26 27 27 19 17 17 18 19 12 12 20 21 20 20 21 18 19 18 18 18 23 40 70 75 70 79 96 95 98 98 99 100 99 96 97 96 99 99 100 100 92 90 90 95 95 92 91 97 98
34 29 29 25 19 22 23 25 20 19 22 24 23 18 15 20 18 18 20 20 22 41 61 79 77 77 72 92 95 98 98 99 100 92 91 88 94 98 100 99 97 88 92 95 100 100 97 95 95
29 32 30 34 26 25 28 29 24 22 24 25 25 22 19 15 18 20 21 19 20 28 59 74 83 76 78 90 96 98 98 98 98 76 68 73 91 97 100 97 84 85 94 97 99 100 100 98 98
30 34 35 29 25 29 31 30 28 24 25 25 26 24 20 16 18 32 60 66 43 46 68 77 90 92 92 91 93 91 93 96 97 95 92 80 90 95 95 93 84 84 94 98 100 100 99 100 99
39 44 43 34 29 31 31 33 27 24 25 29 28 24 20 19 19 44 68 75 79 81 79 69 90 96 99 90 88 84 87 91 96 96 96 91 84 69 73 80 78 79 99 99 100 100 100 100 99
40 52 50 48 35 32 38 34 33 30 29 55 68 68 71 73 72 69 68 75 80 84 88 83 66 97 99 96 96 98 98 98 99 99 100 99 98 86 71 82 91 78 91 99 100 98 99 100 99
53 45 45 46 49 56 38 50 38 44 50 71 77 78 80 82 76 73 72 74 80 86 90 89 91 75 95 97 95 97 94 91 95 98 100 98 100 98 86 79 99 100 99 100 100 99 100 97 96
55 44 46 50 54 56 38 57 40 58 71 96 94 84 82 80 82 81 78 80 83 86 89 89 90 97 100 100 99 96 92 89 88 95 98 100 100 99 97 100 100 99 99 100 99 100 100 88 85
42 52 52 57 62 73 52 70 62 92 100 97 97 96 93 86 85 83 81 82 84 88 88 89 90 93 98 100 100 100 99 92 99 98 99 99 100 99 99 100 100 100 99 100 99 99 99 92 80
54 63 57 61 84 58 42 55 97 98 100 100 100 100 99 94 92 92 87 84 86 90 92 89 92 94 97 98 98 99 99 100 100 98 100 100 100 100 100 100 100 93 65 92 100 99 100 98 90
62 54 48 54 47 44 36 88 98 100 99 100 100 100 100 100 94 94 91 89 89 91 94 96 94 95 97 99 100 97 97 100 100 100 100 100 98 100 100 100 100 99 87 95 100 100 100 100 99
51 57 40 52 47 63 73 98 100 83 94 99 98 98 98 100 98 94 89 89 90 92 95 97 97 96 98 99 100 99 100 99 99 99 96 100 99 100 100 100 100 99 87 73 99 100 100 100 99
54 46 71 63 82 89 86 93 91 85 94 96 96 97 97 98 96 96 89 86 88 90 94 95 96 97 99 99 98 100 99 99 99 99 99 99 99 99 100 100 100 100 100 84 100 100 100 100 100
75 72 64 63 75 86 82 93 97 95 96 96 97 98 98 98 98 97 97 95 86 88 91 95 96 96 98 100 100 100 100 100 100 100 100 100 99 100 100 98 96 99 100 96 100 100 100 100 100
68 71 64 79 68 78 89 94 99 98 97 95 96 97 97 98 98 99 98 98 98 89 89 93 96 97 97 98 100 100 100 100 100 100 100 100 100 99 95 100 99 100 100 100 100 100 100 100 100

GFSSGP_925_rhum_129.txt.gz
RH
22 22 14 10 10 6 6 4 2 3 3 5 6 6 5 4 7 12 16 36 41 32 66 64 60 52 51 52 54 58 62 58 55 54 57 61 62 65 70 70 73 76 76 74 75 74 74 73 72
21 15 12 11 11 9 6 4 4 3 4 4 4 4 5 7 6 10 15 31 39 36 60 76 63 52 53 53 56 60 64 64 63 61 60 63 63 64 68 71 71 71 74 72 79 78 75 73 73
24 15 14 12 12 10 8 5 5 4 4 5 5 4 4 5 10 18 24 34 40 39 54 66 62 52 53 54 55 58 63 65 67 65 64 66 64 64 66 70 72 73 74 75 82 79 75 73 72
17 13 13 16 13 9 7 5 6 6 6 6 7 8 6 6 16 20 30 46 44 40 50 67 60 52 51 52 52 51 51 57 63 67 68 67 66 66 66 69 74 75 76 78 80 76 72 72 71
16 14 17 16 14 10 8 8 8 9 9 9 9 11 10 8 15 25 33 50 47 45 50 69 62 56 51 50 48 47 48 49 57 65 68 67 68 67 67 70 76 78 78 79 78 73 74 70 71
15 13 17 15 12 10 9 9 10 11 10 10 10 11 10 12 22 27 37 48 52 50 54 84 73 61 53 51 49 49 50 51 58 64 68 68 68 67 68 70 73 79 80 80 76 74 73 72 70
14 13 14 12 11 11 11 9 10 11 12 12 11 13 10 11 18 24 36 52 64 60 65 80 92 81 59 55 51 51 54 57 61 65 68 71 69 66 67 70 73 81 85 82 80 73 73 70 72
14 12 12 10 10 11 8 11 10 11 13 12 11 13 13 13 15 14 19 39 62 70 69 76 84 87 86 76 57 56 56 60 63 68 70 69 70 70 71 73 77 84 85 82 75 76 70 72 75
11 14 11 8 8 8 9 12 10 9 12 10 11 14 12 14 14 13 14 15 34 62 68 73 80 77 79 79 76 60 59 59 60 66 71 74 86 88 86 82 86 86 86 83 72 72 74 75 80
12 10 8 7 12 13 14 13 12 10 9 10 10 9 13 12 12 12 12 12 13 28 60 66 77 70 73 69 76 83 81 78 82 84 89 86 76 78 75 78 88 81 86 83 76 75 76 78 78
8 10 7 8 10 14 13 8 7 7 7 6 7 8 7 7 7 7 8 11 12 13 36 60 67 66 68 62 62 73 72 75 77 78 80 82 72 75 76 77 87 93 94 90 83 84 87 77 64
9 5 6 7 7 9 10 7 7 6 7 6 5 6 5 6 7 7 7 8 10 12 18 48 56 65 66 58 57 58 63 68 69 72 78 77 74 74 76 78 81 78 78 72 78 74 73 67 67
9 8 8 9 8 8 8 8 7 7 6 5 5 6 8 7 8 8 8 9 10 10 11 21 52 59 65 69 54 58 61 58 60 64 72 75 68 71 79 76 77 76 75 71 70 62 67 68 70
8 10 9 8 8 8 8 8 8 7 6 7 8 8 8 8 9 9 9 9 10 12 12 14 38 58 63 66 64 58 62 58 80 78 69 75 69 64 72 75 76 76 76 76 73 67 68 72 68
13 13 10 8 8 8 9 9 7 7 8 8 8 9 9 9 9 8 8 10 9 9 12 14 26 53 64 66 65 61 56 59 68 75 85 92 80 66 66 71 75 69 74 77 74 71 70 67 66
13 12 14 10 10 9 10 13 8 8 9 9 8 9 10 10 8 8 9 10 10 8 10 14 15 42 63 69 66 64 58 60 58 65 73 93 91 70 72 70 70 77 77 79 79 76 75 71 69
10 12 11 9 7 9 11 13 9 8 8 9 9 10 9 9 9 9 11 12 11 9 8 12 14 17 56 73 74 69 61 62 58 59 64 86 98 85 82 88 83 80 81 81 84 79 75 70 64
12 11 10 10 8 9 12 12 9 8 8 10 12 16 20 21 22 28 28 24 16 15 20 34 33 32 39 64 74 68 62 62 60 56 64 65 92 95 81 86 89 86 71 87 96 96 88 76 65
14 14 13 10 9 13 15 14 11 10 12 27 28 32 33 34 36 40 41 40 36 37 44 46 44 47 41 59 70 68 61 61 68 62 60 60 70 93 89 83 89 92 90 92 94 97 91 86 80
18 18 17 13 11 14 14 14 11 10 28 30 32 34 37 41 46 48 52 54 51 48 46 51 50 47 48 49 61 64 58 60 63 64 63 68 70 83 97 95 78 93 94 93 97 98 94 92 86
18 19 20 19 16 15 15 13 10 11 26 29 32 35 38 44 53 59 62 67 68 66 66 65 61 56 49 55 58 59 55 54 57 58 58 69 71 80 91 96 78 89 96 85 94 98 92 90 98
26 21 23 22 22 20 14 22 20 27 31 38 42 43 50 55 55 63 78 76 79 80 85 86 81 78 72 87 92 62 58 50 50 53 54 56 66 69 85 93 85 86 93 80 86 95 92 88 92
26 26 27 26 26 24 15 16 33 37 52 55 56 54 59 62 62 66 83 89 87 90 96 96 92 86 88 94 100 86 64 50 49 53 55 62 65 69 70 88 82 81 78 84 76 93 96 92 81
25 30 28 27 26 32 17 22 40 79 87 74 67 61 65 68 73 64 76 94 91 92 96 99 96 93 94 97 99 99 83 73 74 77 70 79 88 81 80 76 80 80 79 89 84 89 95 95 91
32 36 44 35 36 32 13 19 76 71 72 72 81 72 68 67 80 78 76 96 96 96 96 99 97 96 99 100 99 100 100 98 93 86 94 91 94 95 94 83 85 89 87 91 91 92 96 98 91
32 35 41 38 27 26 21 38 90 57 63 63 79 69 72 75 81 88 82 96 97 99 98 99 99 99 100 98 100 100 100 100 100 95 94 99 100 100 98 97 97 95 97 97 97 95 98 99 98
43 43 30 39 36 44 44 87 61 48 62 94 81 74 93 97 95 93 91 97 99 99 100 100 100 100 99 100 100 100 99 99 99 99 100 99 99 98 99 100 98 96 99 100 100 100 98 98 96
35 35 55 46 59 55 35 77 76 75 83 81 97 97 88 95 96 94 96 97 99 99 100 100 100 98 100 100 100 100 99 99 100 99 100 100 100 99 99 99 98 98 99 97 99 100 99 97 99
49 53 53 40 43 60 58 84 78 91 86 92 94 97 99 98 99 98 98 98 99 99 100 99 100 99 98 98 99 100 99 99 99 100 100 100 99 100 99 99 100 100 99 99 98 100 100 100 100
38 46 57 58 52 55 69 91 76 89 79 76 82 86 94 100 99 98 98 98 98 99 99 99 99 97 98 100 99 100 99 99 100 100 100 98 100 100 100 100 100 100 100 100 100 100 100 99 100

GFSSGP_925_rhum_132.txt.gz
RH
18 26 23 12 14 11 8 6 3 2 4 5 5 5 4 4 4 19 26 28 36 58 50 48 47 50 46 46 48 49 57 61 52 50 51 53 54 56 59 67 79 82 81 76 74 76 78 74 68
24 24 13 12 16 13 9 5 3 4 4 4 4 4 4 5 12 12 25 32 34 49 60 52 53 52 48 48 51 53 56 57 54 53 56 59 59 61 62 67 75 79 80 74 78 75 75 74 71
20 18 15 16 15 14 10 5 4 4 4 5 6 5 5 5 14 18 25 38 39 38 68 73 58 55 52 53 55 56 55 56 58 58 59 62 61 62 63 70 72 77 79 78 82 79 74 74 74
18 14 14 19 17 11 9 5 5 6 6 6 7 8 7 10 14 24 29 41 44 38 58 68 68 57 56 58 59 60 60 60 62 64 60 63 63 63 65 69 71 74 78 83 86 79 74 72 74
15 16 20 19 16 12 9 7 7 9 9 8 8 10 10 15 20 23 36 45 50 50 58 64 64 57 60 60 60 60 61 60 63 66 62 64 65 65 66 69 71 72 78 86 88 78 74 71 70
16 14 19 18 13 10 9 9 9 10 10 9 10 10 11 16 17 20 38 49 54 61 70 68 68 54 58 60 56 54 53 51 57 64 64 65 65 67 69 71 74 73 78 83 84 79 76 72 70
15 14 16 14 12 10 8 9 10 10 11 12 11 13 12 14 14 13 16 46 62 58 74 80 75 60 58 59 55 52 52 51 52 60 64 66 67 70 71 73 75 78 81 81 81 78 75 72 70
13 14 16 12 11 10 6 9 10 10 10 10 10 13 16 13 14 13 13 14 55 66 65 71 74 70 62 61 58 56 56 56 60 64 66 66 70 72 73 73 77 80 85 86 81 76 74 70 70
10 15 14 11 8 12 11 12 9 9 10 8 8 10 11 10 12 11 10 11 13 53 64 68 74 85 79 72 61 60 61 63 67 72 72 74 76 74 74 75 76 81 88 88 80 74 71 70 72
11 14 12 7 8 12 13 12 9 7 7 6 6 7 6 6 7 8 8 9 11 13 28 66 70 80 80 79 80 64 66 70 77 78 78 78 81 85 86 79 86 84 86 89 81 74 73 72 70
6 10 8 6 7 7 8 9 7 6 6 5 7 7 5 6 6 7 7 8 9 10 12 55 68 65 77 70 75 74 78 72 75 81 86 77 81 83 77 81 80 91 87 91 87 78 76 69 78
7 6 5 4 5 6 9 8 8 7 8 6 6 6 6 6 9 8 9 10 10 12 11 11 63 63 70 72 68 78 78 80 82 82 84 83 82 79 72 82 83 85 84 83 85 80 74 79 70
8 7 6 6 8 7 6 7 7 7 8 6 5 7 8 8 8 8 9 9 9 10 11 13 20 64 61 68 63 64 72 75 77 79 81 87 78 76 77 78 85 86 86 75 81 78 75 73 68
8 8 9 8 7 7 7 7 7 7 6 7 7 8 8 8 8 9 10 10 10 10 11 10 12 18 58 63 60 62 60 64 72 72 79 77 78 74 80 78 81 82 77 77 74 69 73 68 65
11 13 9 8 7 8 7 10 8 7 8 9 8 8 8 8 8 10 10 12 11 11 11 10 10 13 34 62 64 57 65 57 66 66 70 76 73 74 75 80 82 80 77 74 76 60 70 66 66
14 13 15 9 8 8 8 12 8 7 7 8 8 8 9 12 14 32 33 33 35 36 31 17 18 13 19 59 59 63 61 65 61 68 66 80 78 73 72 75 73 80 76 72 77 71 70 72 70
12 15 12 9 7 6 8 10 8 7 8 8 11 24 26 27 28 34 38 41 44 46 46 42 42 47 49 44 63 62 65 63 64 75 73 70 78 80 75 71 75 73 75 81 81 79 76 75 70
14 12 10 9 6 7 9 10 10 8 8 20 26 27 28 31 32 35 41 47 50 54 58 62 60 48 53 52 46 69 68 66 64 62 70 76 82 73 82 77 71 84 77 80 84 82 80 76 71
13 11 11 9 8 11 12 12 10 9 19 28 29 32 33 34 34 38 45 52 57 60 66 68 65 63 62 61 55 58 69 70 68 65 62 68 85 79 82 88 80 73 88 82 83 89 88 82 74
15 15 15 12 10 12 13 13 11 21 29 32 36 38 39 42 42 42 49 58 67 70 73 78 75 74 73 72 68 76 67 70 72 67 61 63 82 87 85 93 89 75 78 84 80 82 88 78 75
16 18 17 18 15 14 15 14 9 28 32 35 39 40 44 50 50 50 54 59 68 74 82 85 84 86 87 83 78 88 94 86 71 68 65 65 66 86 85 88 89 84 89 86 82 85 89 94 82
20 17 22 22 23 26 14 23 13 26 39 44 48 48 54 54 53 54 56 62 73 77 88 91 93 94 91 88 86 91 99 97 73 68 70 65 64 76 93 92 84 88 86 89 88 90 88 88 83
22 22 25 27 27 27 23 20 33 34 58 60 56 56 57 57 58 60 64 67 72 81 93 98 97 97 93 95 95 98 100 99 86 66 66 64 70 72 89 90 88 87 89 88 88 95 98 87 79
21 27 28 29 29 40 21 17 55 79 80 70 64 62 64 63 65 62 70 76 80 93 98 100 99 96 94 94 99 100 98 100 88 79 74 64 74 76 83 89 82 84 92 91 79 90 98 94 82
28 36 47 45 48 39 13 18 73 68 63 68 77 67 70 69 77 74 77 83 86 93 98 100 100 97 96 94 100 100 97 99 100 96 96 99 92 84 96 96 93 88 87 87 88 82 94 96 87
32 30 42 48 33 34 23 46 93 70 67 64 72 68 72 75 79 83 78 84 94 99 98 100 100 100 100 95 100 100 99 100 100 99 100 95 99 97 64 100 86 83 87 81 83 86 86 97 90
32 37 29 42 39 48 45 76 52 54 65 89 76 76 79 83 84 87 82 90 98 99 100 100 100 100 99 100 99 100 100 100 100 100 100 100 94 98 96 100 99 99 85 92 96 98 93 96 99
29 29 50 44 58 53 34 86 92 75 82 84 92 91 80 87 89 88 89 97 98 100 100 100 100 100 100 100 99 100 100 100 100 100 99 100 100 99 100 99 99 100 100 99 89 92 98 98 99
39 41 38 42 51 66 62 84 72 88 87 91 91 90 86 94 94 93 91 97 99 99 99 99 100 100 100 100 100 100 100 100 100 100 99 100 99 99 98 100 99 99 99 100 100 100 100 99 96
35 43 48 82 57 49 78 91 77 94 80 73 84 77 77 82 96 95 96 94 98 99 100 100 100 100 99 100 98 98 98 99 100 100 98 100 98 97 100 94 96 98 98 97 99 99 100 100 100

GFSSGP_925_rhum_135.txt.gz
RH
18 20 30 28 22 25 21 13 8 8 7 5 5 5 5 5 12 57 33 41 43 45 48 50 47 47 45 45 45 48 49 53 45 46 48 47 48 49 54 61 69 74 71 66 68 72 73 70 69
19 19 24 23 27 29 23 9 7 6 5 6 5 5 5 19 21 31 37 43 54 46 48 53 49 48 45 47 47 51 55 54 48 48 50 51 52 56 57 64 73 77 76 70 72 73 73 72 70
24 26 26 29 29 29 22 8 6 5 8 8 9 8 7 15 28 30 42 47 52 57 53 52 52 51 48 50 51 52 56 56 50 50 53 55 54 58 61 66 69 73 75 76 82 76 75 74 72
29 23 24 30 30 23 17 14 6 9 9 8 9 11 16 24 26 38 34 49 56 65 62 59 54 54 50 53 56 56 58 56 53 53 55 59 56 59 63 68 72 75 75 77 81 78 75 74 73
26 26 32 32 28 21 16 13 11 12 12 13 11 11 28 19 27 35 33 48 59 68 68 69 61 56 54 59 63 61 62 60 59 58 58 60 60 60 64 69 73 77 78 81 82 76 73 71 70
26 26 32 33 25 17 14 12 10 14 15 15 15 21 24 15 14 40 44 36 63 68 69 68 67 60 52 58 64 66 64 65 65 64 61 60 63 62 66 69 73 78 82 86 82 74 72 69 66
24 25 27 23 18 14 14 13 14 14 17 17 13 16 20 19 12 10 9 26 56 69 71 62 72 65 55 55 62 64 62 62 64 65 63 63 64 65 69 71 75 78 80 82 80 75 72 69 63
21 23 23 22 21 16 16 14 10 11 13 10 10 16 20 15 6 6 8 7 27 68 71 60 64 70 60 58 61 61 57 54 57 63 65 65 68 69 71 73 77 79 80 80 78 76 73 70 63
11 23 23 18 12 16 14 15 11 7 7 9 9 11 8 5 5 5 6 7 10 44 69 63 64 68 65 60 60 63 61 60 61 67 72 73 72 74 74 73 76 80 82 81 80 74 71 66 67
16 24 18 12 11 10 9 10 10 8 8 8 9 8 6 5 6 9 10 12 9 9 15 76 69 70 68 57 61 62 64 67 71 74 75 76 74 74 71 73 76 78 83 84 78 70 71 65 67
10 14 12 8 8 7 8 9 9 9 9 8 10 9 8 9 10 10 10 9 9 8 8 11 63 75 73 65 62 66 62 64 74 79 77 74 78 76 76 74 80 87 87 88 84 70 68 66 67
8 8 7 7 8 7 10 10 9 8 9 9 8 8 10 10 11 10 10 9 9 10 9 9 10 35 60 69 75 70 73 60 65 80 81 81 79 84 80 81 80 85 89 88 84 72 66 63 79
9 9 8 8 9 9 8 9 9 9 10 9 8 9 9 9 9 19 36 40 41 42 40 39 32 18 18 47 65 71 75 71 60 60 75 76 77 81 86 83 84 82 85 87 82 76 66 61 70
11 12 11 11 11 10 9 9 9 9 9 9 9 10 9 20 39 40 42 45 47 48 47 46 55 54 49 48 66 62 68 78 74 68 68 79 78 76 84 81 84 84 84 83 80 82 74 65 69
14 17 16 13 11 11 10 11 11 11 9 9 10 17 31 34 36 41 43 48 51 52 54 57 55 52 60 59 47 61 65 63 80 77 72 77 79 77 82 80 81 81 82 77 81 82 77 74 69
18 16 20 15 12 10 10 14 11 9 9 12 32 31 32 34 36 40 45 50 53 58 60 60 59 62 66 64 62 54 57 71 63 80 77 74 78 76 79 80 77 82 82 82 79 76 77 72 73
23 24 21 17 10 11 11 13 10 9 13 33 35 36 36 39 41 42 45 51 58 64 69 70 67 70 74 74 61 53 56 57 71 60 69 73 75 77 72 78 77 80 81 80 78 73 74 71 72
22 20 14 12 9 9 12 13 12 12 34 40 41 42 46 47 46 45 49 54 58 64 71 74 77 78 79 79 74 60 65 63 79 73 65 69 74 74 72 76 78 78 80 77 80 77 76 72 69
17 16 15 14 11 12 13 14 14 38 42 48 48 50 54 52 48 50 53 56 59 64 71 75 82 82 85 86 84 82 81 82 84 84 72 70 69 71 75 75 81 77 78 78 82 83 81 82 77
19 21 21 17 15 17 18 18 40 41 47 49 52 58 59 57 55 55 57 62 62 63 70 77 85 88 88 91 92 93 90 86 87 77 70 85 84 68 77 78 82 79 79 80 82 85 89 87 81
19 23 24 25 22 20 20 24 49 46 48 49 53 57 59 62 64 62 61 66 70 69 72 84 93 93 95 94 93 94 93 86 85 77 76 88 75 78 71 74 87 87 84 83 83 82 86 93 84
23 22 26 28 32 39 25 39 46 55 61 60 62 67 70 69 69 66 65 72 76 72 81 96 97 98 96 96 94 97 97 84 85 89 84 71 79 83 76 70 88 91 86 87 86 81 74 79 90
22 26 28 30 38 41 35 39 60 58 73 71 71 65 68 72 77 76 72 77 76 77 91 95 98 99 98 97 99 100 100 96 88 91 91 92 71 76 83 84 91 94 83 84 79 84 78 83 90
23 29 34 36 43 70 39 39 76 92 77 72 68 64 71 72 76 77 75 79 82 87 94 98 100 100 100 100 100 100 100 100 99 93 96 92 88 79 82 96 94 97 91 85 84 83 87 89 91
28 40 80 74 80 70 30 53 88 75 75 71 75 76 76 74 79 80 80 86 89 91 99 99 100 100 100 100 100 100 100 100 100 100 100 86 98 76 64 100 100 98 89 94 90 88 99 89 94
34 43 72 69 64 62 40 85 97 79 72 64 68 71 74 81 79 83 84 90 96 96 99 100 100 100 100 100 100 100 99 100 100 100 100 100 100 93 92 88 89 87 98 100 89 93 99 98 94
36 44 34 55 50 69 78 81 78 67 75 83 78 75 88 90 87 86 89 94 97 98 100 100 100 100 100 100 100 100 99 98 100 100 99 99 100 99 94 94 98 81 88 88 99 94 99 100 100
31 32 64 65 70 77 86 90 96 85 86 82 94 94 89 91 93 90 93 97 100 100 100 100 100 100 100 100 100 100 100 98 100 100 100 97 100 99 96 97 100 99 95 86 100 99 100 100 100
45 44 46 52 69 91 89 92 79 95 88 95 94 91 94 96 96 96 95 96 99 98 99 100 100 95 99 100 100 100 100 100 100 100 100 100 99 100 100 100 98 100 99 98 100 99 100 100 100
36 49 53 86 75 78 92 96 81 93 82 83 83 80 87 94 97 96 97 94 95 98 99 100 100 99 99 100 100 100 100 100 100 100 100 100 100 100 100 100 96 100 99 100 98 99 99 99 99

GFSSGP_925_rhum_138.txt.gz
RH
20 19 21 27 22 27 24 16 9 7 6 5 5 13 23 18 45 64 40 51 48 42 47 50 49 50 49 48 48 46 48 45 42 44 45 45 48 51 54 55 56 60 60 60 62 65 70 70 68
20 22 24 28 30 33 24 14 6 5 6 7 8 8 19 35 34 41 50 55 53 51 50 51 51 52 49 49 49 49 51 48 43 46 48 46 48 50 55 64 66 64 65 65 69 69 70 68 70
26 28 28 33 36 33 25 10 10 7 8 8 10 23 25 33 34 42 60 55 59 62 59 57 51 52 50 48 52 55 56 52 45 47 50 49 50 52 56 62 68 70 69 67 69 71 71 70 70
27 25 28 32 32 28 20 19 16 10 10 13 20 34 28 36 40 50 63 58 64 66 59 56 53 55 54 54 55 57 60 56 49 49 52 53 52 54 58 64 68 74 75 76 75 73 74 73 71
29 32 37 34 32 25 20 17 15 17 18 22 24 27 24 26 41 40 60 65 63 67 66 65 60 59 55 59 60 60 62 59 54 53 54 56 55 57 60 64 67 71 75 78 78 74 72 72 70
29 31 36 34 27 18 14 14 15 18 18 18 24 24 25 12 8 9 21 47 66 62 66 65 65 61 56 56 65 66 66 63 59 58 59 59 59 59 62 65 67 71 75 78 80 75 72 70 68
26 30 30 26 22 17 18 14 10 14 11 16 18 24 18 10 6 7 10 29 75 71 67 63 65 66 63 53 60 70 72 72 66 66 66 64 64 62 63 66 68 71 75 80 79 75 74 70 66
26 29 25 23 23 18 15 14 9 8 9 10 12 13 10 9 6 8 8 9 17 28 63 84 78 67 67 60 55 64 69 74 74 75 75 72 71 68 66 68 70 71 74 77 76 75 73 71 64
15 26 28 21 14 14 10 11 10 8 7 9 9 9 7 9 8 8 8 9 13 12 13 40 82 83 75 66 61 61 64 64 68 72 77 78 78 75 73 71 71 72 73 74 75 76 73 69 65
18 26 22 16 10 9 8 10 10 9 8 9 10 9 10 8 10 14 23 35 40 39 31 26 30 60 83 76 64 59 58 61 63 65 76 84 80 77 75 76 76 76 76 76 75 72 72 70 63
12 18 14 11 7 6 8 10 8 8 9 8 9 9 10 25 42 43 45 47 48 49 44 42 43 42 47 72 80 66 62 56 60 65 72 80 84 84 83 81 85 85 84 83 84 77 69 66 63
10 9 9 7 8 8 10 9 8 8 9 10 9 10 40 44 44 46 48 50 50 50 56 47 40 39 43 52 52 92 84 74 58 64 73 80 85 87 88 83 82 84 84 85 85 77 66 65 63
10 10 12 10 10 10 8 8 8 9 12 11 20 40 43 42 43 46 48 50 50 52 54 62 52 46 43 49 51 54 66 98 79 62 59 73 81 82 86 83 80 81 82 85 84 81 69 64 64
15 17 16 14 13 11 10 10 8 9 10 16 36 40 40 42 44 47 50 53 57 56 52 51 57 60 51 48 46 51 50 59 100 85 71 64 67 75 81 86 85 83 80 82 83 78 74 65 64
17 17 17 14 13 11 10 10 10 10 16 33 35 37 42 43 44 48 51 56 59 61 59 56 59 65 67 60 52 45 53 53 53 94 89 75 74 74 75 83 88 86 85 82 84 82 76 72 68
21 18 21 16 14 11 10 14 11 17 35 41 40 41 44 45 47 50 54 57 59 62 64 60 59 58 65 73 64 56 47 52 52 51 99 94 80 81 75 78 90 86 86 85 87 85 86 79 74
26 25 24 18 11 12 11 13 25 35 39 45 49 52 50 50 51 53 56 60 62 63 64 67 71 75 64 75 72 73 59 59 53 48 48 91 85 77 78 84 88 92 86 85 87 86 87 84 80
24 21 16 12 10 12 12 14 47 44 47 52 58 58 58 57 57 57 60 63 67 68 69 70 74 80 76 82 88 86 86 65 59 57 47 44 93 86 78 82 88 90 91 88 87 88 86 82 75
22 18 18 14 12 14 16 41 56 52 55 63 65 65 64 63 60 61 63 67 70 72 72 75 81 87 94 93 95 94 95 95 84 73 66 41 41 86 93 82 84 82 95 93 88 90 88 88 76
22 21 23 19 17 18 22 59 59 56 61 65 68 71 71 70 67 65 68 71 75 75 75 79 91 93 94 93 94 93 92 95 98 91 76 59 45 60 87 99 83 77 92 95 95 93 93 92 81
23 25 24 23 24 22 22 57 61 59 60 62 66 69 71 76 77 74 73 75 77 78 81 85 91 94 98 96 94 93 95 96 97 89 81 70 73 40 88 99 94 88 83 97 95 93 91 93 91
30 19 27 30 33 35 28 50 68 68 71 72 70 77 75 70 75 77 77 78 82 85 86 90 96 96 97 99 100 100 99 96 96 99 90 87 83 69 56 70 88 89 95 94 93 94 91 91 93
25 26 29 30 36 42 38 44 70 64 76 78 75 76 77 67 75 80 80 81 86 90 87 93 99 98 96 99 100 100 100 99 100 98 85 87 75 84 45 59 73 90 96 90 93 96 96 93 89
28 31 35 37 45 68 44 43 70 90 87 82 76 73 71 72 69 72 81 84 86 89 93 96 99 100 99 100 99 100 100 100 100 98 99 99 97 96 98 54 85 100 97 88 98 94 95 93 85
31 46 72 74 84 69 38 51 85 86 83 82 81 78 74 76 78 83 88 89 86 88 95 98 100 99 100 100 100 100 100 100 100 100 100 100 100 98 89 66 86 84 79 98 93 100 98 89 82
38 45 72 74 75 65 47 72 96 80 75 68 73 73 76 90 90 90 90 93 89 91 97 99 100 100 100 100 100 100 100 100 100 100 100 100 99 100 100 84 87 94 74 89 98 99 91 92 88
38 51 37 56 56 71 78 93 86 79 82 84 78 74 90 96 94 93 92 93 95 97 99 100 99 100 100 100 100 100 100 100 100 99 99 99 100 100 100 95 99 98 86 80 91 98 97 99 90
34 37 64 70 73 78 86 92 92 91 91 87 92 94 90 93 95 93 93 94 97 100 100 100 100 100 100 100 100 100 100 100 100 98 99 98 100 100 100 100 100 99 96 91 96 96 89 78 86
42 49 48 55 76 90 94 89 84 90 93 95 93 92 97 94 97 96 95 96 95 94 99 100 100 99 100 100 100 100 100 100 98 100 99 100 100 100 98 100 100 100 97 100 100 100 100 99 90
44 49 51 77 67 82 88 90 82 93 91 90 84 87 87 92 96 94 91 91 89 91 96 99 99 99 100 99 100 100 99 98 97 99 100 100 100 100 99 100 99 100 100 98 98 98 100 98 100

GFSSGP_925_rhum_144.txt.gz
RH
21 24 26 21 22 24 22 17 14 18 16 36 38 41 52 52 54 68 55 66 64 59 57 56 58 60 57 55 56 50 47 47 44 44 47 55 62 66 69 70 71 73 72 71 70 66 58 60 64
23 25 21 30 27 18 17 18 20 17 11 21 34 30 49 61 50 52 70 75 68 64 61 57 54 56 57 59 59 58 50 52 51 48 47 48 52 55 56 58 58 61 62 67 66 63 62 63 66
26 24 27 35 41 31 30 23 23 20 23 12 37 42 49 54 52 66 87 85 75 65 62 58 57 58 59 58 60 64 60 56 58 56 55 52 54 58 60 62 62 62 62 67 68 67 65 66 70
26 26 33 34 30 26 22 19 17 19 28 32 36 37 35 19 48 79 94 91 90 91 88 87 84 79 75 64 59 60 67 61 61 61 60 59 57 57 61 64 64 64 64 69 69 68 67 67 70
23 34 39 39 30 25 20 17 22 27 29 22 19 14 17 16 63 91 81 88 95 100 100 99 98 97 94 93 88 69 62 66 61 63 65 66 67 66 68 67 65 66 67 69 69 69 69 70 71
31 34 39 40 32 22 19 19 10 18 18 16 15 17 20 17 31 34 35 51 71 75 71 85 92 94 94 98 100 98 95 77 67 64 70 74 73 71 71 70 67 66 68 70 72 70 70 70 70
30 34 37 33 25 19 18 14 10 10 11 11 16 14 14 16 35 34 30 29 31 33 35 36 47 68 92 96 96 98 100 87 87 71 70 76 77 74 70 71 69 66 66 68 72 72 70 69 68
32 33 29 27 26 18 12 13 10 9 8 8 8 10 17 24 36 34 27 27 27 27 27 28 30 34 54 69 93 96 94 96 97 86 81 75 77 76 74 73 72 69 68 68 71 72 71 70 68
21 32 33 25 16 14 9 9 9 8 8 16 31 44 44 43 41 35 32 30 29 28 28 26 25 25 26 33 41 62 90 88 93 91 87 85 84 79 78 76 75 74 70 70 71 73 72 72 71
21 30 28 21 12 9 8 9 10 8 9 15 36 44 46 46 48 51 55 57 53 42 36 34 30 26 24 23 23 28 38 66 88 91 93 94 83 83 86 82 79 80 79 78 75 75 74 76 73
17 20 17 16 11 8 8 10 9 8 11 20 39 52 49 49 51 54 56 59 60 57 51 42 38 38 31 25 24 21 22 27 44 78 98 98 98 99 99 95 89 86 84 86 83 81 78 77 75
13 11 12 10 12 10 12 10 9 31 43 48 51 49 49 52 55 57 59 60 59 57 56 52 48 46 38 35 31 27 24 23 24 33 58 93 99 99 97 99 99 90 87 89 85 85 77 76 77
13 15 18 16 18 13 10 9 22 54 47 44 44 48 53 54 57 60 62 62 62 60 58 56 54 54 48 43 40 36 30 28 26 24 28 50 88 99 99 98 100 100 99 99 98 90 83 79 75
19 20 21 18 16 13 12 11 29 46 43 44 48 53 54 56 59 61 64 65 66 64 63 60 56 56 56 56 52 50 46 41 35 30 25 31 50 68 97 100 100 100 99 100 98 100 87 84 77
19 21 21 16 15 18 15 19 56 46 44 49 50 52 56 58 62 65 66 68 68 65 64 63 65 60 55 53 56 64 72 63 52 44 39 37 37 46 62 91 100 99 99 100 99 100 100 90 88
24 23 23 12 16 13 10 24 49 47 54 61 58 57 60 62 64 67 69 70 70 71 74 75 76 74 73 73 72 61 66 85 82 70 58 50 51 45 66 65 85 99 100 99 100 100 99 100 95
27 20 23 22 13 13 14 34 57 53 57 66 69 71 67 68 69 70 72 73 74 77 79 77 79 80 82 80 82 88 86 79 90 90 89 78 72 64 70 98 67 86 100 99 100 99 99 100 100
22 31 27 25 13 13 28 54 60 63 66 72 76 76 76 75 72 71 72 72 76 81 84 85 84 87 90 92 91 90 93 93 96 92 93 98 98 94 80 67 64 65 82 99 100 99 99 98 99
24 26 26 23 16 16 24 46 63 65 71 77 79 82 81 78 70 71 72 75 82 87 89 91 91 91 92 92 89 89 90 91 93 93 89 93 99 99 90 83 73 67 78 72 95 100 98 99 99
32 34 35 28 20 20 46 54 67 65 73 76 80 84 83 78 73 70 72 79 87 86 88 92 91 91 92 95 98 93 91 93 93 94 91 87 91 94 94 94 96 98 99 97 85 84 97 97 99
36 36 31 26 22 27 40 47 77 70 74 73 77 78 80 84 81 75 77 83 87 87 89 91 94 96 96 95 99 97 99 97 96 90 91 89 90 90 98 98 92 74 73 61 97 74 99 97 100
42 32 30 26 31 38 26 45 60 80 83 78 83 85 86 89 84 80 83 88 90 88 90 91 95 96 95 95 99 100 100 98 99 99 95 93 90 91 94 98 99 99 94 90 90 94 77 89 96
35 28 32 30 38 40 42 42 49 80 88 86 86 81 84 89 88 89 88 93 91 92 91 94 93 97 98 97 98 100 99 100 100 100 100 96 94 96 90 93 96 100 100 100 80 98 95 87 78
27 33 47 53 50 65 44 41 29 91 82 92 84 83 85 88 88 86 87 95 91 92 95 96 99 96 98 99 97 98 100 100 100 100 99 99 99 97 97 99 100 98 100 100 82 84 94 75 95
34 42 66 67 81 57 40 46 38 83 82 82 89 87 89 89 91 92 93 94 94 93 98 99 99 99 99 100 96 99 100 100 100 100 100 100 100 100 100 100 100 100 98 99 95 96 97 100 99
39 37 59 58 62 56 49 62 66 84 84 83 84 85 91 91 90 92 92 90 93 94 99 100 100 100 99 99 99 100 99 100 100 100 100 100 100 100 100 100 100 99 100 100 99 83 82 80 77
40 50 32 49 61 80 65 69 84 86 92 91 89 89 99 98 93 92 88 90 95 93 96 100 100 100 100 100 98 100 100 100 99 100 100 100 100 100 100 100 100 100 100 99 100 100 100 100 92
36 38 65 88 93 88 81 85 74 95 94 95 100 98 99 98 92 91 88 88 85 87 92 94 97 98 97 100 100 100 100 100 96 98 99 100 100 100 100 100 99 100 100 100 100 100 100 99 100
62 61 64 65 76 84 91 84 79 86 85 95 94 95 99 98 96 96 87 82 79 81 86 92 94 95 96 98 99 100 100 97 96 99 100 100 100 100 100 100 100 99 100 100 100 100 100 98 100
56 70 69 96 90 87 88 75 88 94 90 88 95 96 97 96 94 91 85 80 80 83 86 91 90 94 97 97 100 100 97 98 97 98 98 98 99 100 100 99 98 100 100 100 100 100 100 100 100

GFSSGP_925_rhum_150.txt.gz
RH
32 26 22 15 13 8 10 12 10 15 22 25 23 26 42 43 52 65 93 93 88 89 99 100 100 92 76 70 58 53 52 54 62 68 70 64 60 60 64 66 71 77 76 73 65 68 69 61 63
26 22 17 12 12 8 10 12 12 19 26 25 27 30 35 55 57 70 80 96 98 94 96 99 98 98 95 86 80 67 60 59 63 69 73 70 66 67 68 68 69 72 79 77 64 67 68 63 66
25 19 13 13 11 8 11 13 13 16 17 20 31 26 30 47 48 76 80 80 77 80 93 98 99 97 99 99 94 93 74 62 63 75 79 79 78 75 71 69 70 72 76 66 63 67 66 66 68
18 14 13 14 12 14 13 14 14 20 17 20 20 28 36 44 55 66 62 62 62 66 74 100 94 94 90 96 99 99 95 85 71 66 65 69 72 71 70 69 70 69 62 55 60 64 64 67 69
15 13 14 14 15 14 12 12 16 17 20 23 15 28 41 40 49 52 52 56 56 59 62 63 86 94 92 90 88 92 97 98 93 84 76 69 63 62 66 65 61 59 57 62 67 69 70 68 70
12 13 14 14 14 14 11 11 15 17 17 14 17 28 34 36 39 43 47 51 54 57 59 56 42 52 64 85 93 91 90 95 99 94 88 83 75 67 66 69 70 68 67 68 70 75 77 73 70
12 11 12 13 15 16 12 10 13 14 13 12 13 20 28 30 35 36 40 48 52 53 44 42 40 25 32 34 65 83 88 93 98 100 98 90 87 83 74 69 74 76 74 74 76 74 75 75 72
13 11 13 13 15 15 10 8 8 11 11 10 13 16 26 30 33 30 32 36 45 48 47 42 44 32 27 39 20 27 51 72 85 86 91 95 85 82 85 81 77 75 78 76 78 77 77 77 74
12 11 10 13 14 12 7 8 7 7 10 21 25 24 29 31 28 26 29 31 36 42 47 46 43 41 33 42 35 25 20 20 29 63 77 86 99 98 94 88 87 84 75 77 76 77 80 79 77
10 10 11 12 11 9 7 7 6 7 12 20 27 30 30 29 27 26 27 31 37 40 43 46 55 56 47 44 39 38 36 49 50 46 41 61 79 97 99 93 90 88 86 78 80 81 82 86 75
10 10 13 11 9 7 7 7 6 7 8 18 20 27 26 26 28 27 29 33 37 40 45 48 54 62 62 56 52 49 49 51 53 58 64 48 55 73 97 94 87 94 89 91 89 92 90 77 70
10 9 9 8 9 8 8 7 16 18 29 27 26 27 26 27 30 32 33 35 38 40 47 50 54 62 66 64 56 56 53 56 54 58 62 66 54 52 69 98 100 93 94 99 96 90 80 72 69
9 9 10 9 10 9 9 9 16 31 31 28 29 29 29 29 31 35 35 37 40 42 49 56 57 63 64 64 64 65 63 59 68 58 60 69 66 61 62 64 86 98 94 92 95 95 92 82 72
12 11 9 9 9 10 10 13 17 30 29 30 29 29 30 32 35 35 37 40 43 44 48 58 59 64 66 65 68 66 61 65 63 62 63 77 75 69 67 60 56 76 97 99 96 92 96 98 90
11 10 7 8 8 9 9 14 14 30 29 30 31 32 33 35 36 40 43 42 44 44 50 58 58 65 70 66 67 64 60 67 64 63 69 72 77 75 78 70 63 55 61 92 99 99 96 98 99
10 13 13 12 11 11 10 10 27 28 30 30 30 33 35 36 39 42 45 43 45 48 55 59 64 68 71 69 69 66 65 69 63 63 65 70 77 80 79 74 68 63 66 70 92 99 99 91 99
11 12 13 12 10 10 12 12 28 29 29 32 31 32 33 35 36 43 44 46 49 52 59 61 66 69 74 70 67 66 68 65 65 65 65 68 81 82 84 86 88 80 73 69 72 89 98 97 95
14 14 13 14 11 10 11 12 26 30 30 30 30 31 34 35 37 45 48 52 54 56 62 63 65 71 72 64 63 61 65 67 68 68 70 78 79 89 93 91 94 98 76 66 60 60 77 93 100
15 17 17 14 13 17 16 14 12 26 30 30 31 32 34 38 41 45 51 53 58 60 62 64 65 69 70 65 66 65 69 71 71 72 77 81 80 88 89 88 92 94 92 70 67 64 65 77 92
19 22 22 19 18 18 18 16 12 22 29 27 29 31 36 41 38 45 49 55 60 61 65 64 65 69 70 72 74 76 75 76 75 72 71 77 88 94 91 87 85 92 93 90 84 75 68 61 78
26 29 28 27 22 19 20 22 18 22 28 30 33 34 41 42 42 44 49 56 58 61 65 66 69 69 72 81 75 73 71 69 68 71 77 82 87 92 96 98 97 96 93 92 91 84 73 85 62
28 20 26 26 28 28 19 27 16 21 32 38 39 44 43 43 43 45 49 56 58 62 67 69 72 71 73 82 80 80 76 74 77 77 82 82 85 96 100 99 99 99 99 99 95 90 88 72 81
25 22 24 26 28 28 24 28 18 25 30 32 38 44 46 45 46 47 50 57 58 62 67 70 72 72 78 81 80 83 81 80 80 82 84 81 90 99 100 100 100 98 99 98 98 98 99 83 66
22 25 26 27 30 39 25 24 21 26 31 32 37 47 50 46 48 49 51 55 58 63 69 71 75 71 78 81 80 87 84 85 85 87 88 89 95 100 100 99 99 98 99 100 99 99 99 98 81
26 32 47 43 44 40 21 29 24 31 40 44 47 50 52 50 50 48 47 48 58 66 70 71 76 71 77 85 84 86 86 88 89 92 92 94 97 99 100 100 99 100 100 100 99 100 100 99 92
26 28 42 53 35 39 34 37 33 52 53 50 52 55 56 55 56 52 51 53 63 70 71 76 79 72 77 88 89 88 90 91 90 92 96 98 99 100 93 97 99 100 100 100 99 100 100 100 89
31 37 26 42 41 52 36 42 37 54 64 78 67 62 88 76 65 57 54 62 66 70 74 81 81 83 77 87 92 93 92 92 93 95 97 98 98 99 99 99 100 100 100 100 100 100 99 99 100
26 24 46 50 65 52 38 35 42 49 66 85 99 98 77 88 78 61 60 71 72 87 74 83 87 95 79 80 94 96 96 97 98 97 99 98 98 99 99 99 100 100 100 100 100 100 100 100 100
36 39 38 48 60 62 57 42 54 83 74 100 99 100 99 89 98 88 75 82 93 89 73 78 85 95 97 89 88 90 99 100 99 100 100 99 100 100 99 99 100 100 100 100 100 100 99 99 100
26 31 32 60 53 59 72 72 61 93 68 78 86 84 94 94 92 90 93 90 94 84 90 86 90 81 95 94 98 93 96 96 96 100 99 93 98 96 99 99 98 98 100 100 100 100 97 100 100